[{"header": {"dx": 0.06612293990616946, "dy": 0.0552356325346848, "nx": 98, "ny": 59, "la1": 35.046912555036876, "la2": 31.78801023549047, "lo1": -121.43107172385933, "lo2": -114.95102361305473, "refTime": "2026041211", "parameterCategory": 1, "parameterNumber": 2}, "data": [7.97, 7.97, 7.51, 7.51, 7.07, 7.07, 7.51, 7.97, 8.42, 8.79, 9.23, 9.23, 8.63, 7.45, 5.29, 2.41, 0.98, 1.98, 2.84, 4.09, 4.8, 3.79, 3.35, 3.16, 3.16, 3.16, 2.86, 2.15, 1.84, 1.49, 1.27, 0.66, -0.0, -0.0, -0.45, 0.0, 0.45, 0.89, 0.89, 0.6, -0.0, 0.7, 0.99, 2.23, 4.65, 6.0, 6.94, 7.47, 7.47, 7.2, 7.03, 6.08, 6.08, 6.06, 6.39, 6.7, 7.06, 7.69, 8.05, 8.05, 7.6, 5.43, 2.84, 1.6, 2.3, 3.72, 5.43, 7.03, 7.6, 8.4, 8.4, 8.4, 8.63, 7.45, 6.21, 6.51, 3.07, 0.0, -2.24, -2.6, -2.91, -2.8, -2.86, -3.22, -3.16, -3.07, -1.6, -0.65, 0.0, 2.07, 4.74, 5.37, 6.06, 7.06, 5.09, 1.24, 0.0, 0.0, 7.97, 7.97, 7.51, 7.51, 7.07, 7.07, 7.51, 7.97, 8.42, 8.87, 9.23, 8.8, 7.89, 7.11, 5.2, 2.23, 0.99, 2.53, 2.48, 3.48, 3.76, 3.22, 3.22, 2.68, 2.84, 2.5, 1.9, 1.49, 0.76, 0.73, 0.72, 0.78, 0.73, -0.0, -0.89, 0.45, 0.45, 0.89, 1.34, 1.26, 0.7, 0.88, 2.2, 3.84, 5.34, 6.79, 7.71, 7.71, 7.21, 6.7, 5.43, 5.09, 5.46, 6.32, 5.72, 6.08, 6.7, 7.67, 8.24, 8.55, 7.35, 3.84, 1.6, 1.66, 2.98, 4.43, 6.07, 6.94, 6.94, 7.47, 7.89, 7.28, 6.79, 6.55, 5.31, 5.31, 4.73, 0.0, -2.24, -2.6, -2.91, -2.8, -2.86, -3.22, -3.16, -3.07, -1.6, -0.65, 0.0, 2.07, 4.74, 5.37, 6.06, 7.06, 5.09, 1.24, 0.0, 0.0, 7.97, 7.97, 7.97, 7.4, 7.4, 6.94, 7.51, 7.97, 8.42, 8.79, 9.23, 8.79, 8.36, 7.11, 3.95, 1.74, 0.85, 1.74, 2.0, 2.4, 2.4, 2.6, 3.76, 4.47, 4.74, 3.79, 2.21, 1.24, -0.0, -0.0, -0.0, 0.8, 1.52, 0.79, -0.0, -0.0, 1.26, 1.79, 1.79, 1.24, 0.66, 1.27, 3.84, 5.34, 6.07, 6.55, 6.98, 6.66, 5.64, 4.66, 3.83, 4.46, 5.05, 5.82, 5.31, 6.0, 6.64, 7.6, 8.14, 8.3, 5.43, 2.07, 1.41, 2.4, 3.72, 5.09, 6.44, 7.03, 7.07, 7.67, 8.05, 7.67, 7.6, 6.79, 4.87, 4.87, 5.32, 1.7, -1.79, -3.51, -3.95, -3.32, -3.2, -2.86, -3.49, -3.49, -2.84, -0.76, 0.7, 3.64, 5.3, 6.01, 5.69, 3.84, 1.2, 0.0, 0.45, 1.2, 7.97, 7.97, 7.97, 7.4, 7.4, 6.94, 6.97, 7.87, 8.33, 8.79, 9.23, 9.23, 7.89, 7.56, 4.85, 1.74, -0.0, -0.0, -0.0, 0.88, 1.66, 1.27, 2.48, 3.84, 4.74, 5.37, 3.79, 1.9, -0.0, -1.4, -1.55, -0.74, -0.0, 2.17, 3.22, 1.98, 2.53, 2.8, 2.6, 1.2, 1.41, 2.3, 3.84, 4.93, 5.31, 5.36, 4.92, 4.47, 3.95, 3.51, 3.32, 4.24, 4.8, 5.43, 5.43, 6.0, 6.4, 7.47, 7.89, 6.79, 3.16, 0.66, 1.55, 2.98, 4.43, 5.77, 6.39, 6.95, 7.55, 8.53, 8.53, 8.6, 8.94, 8.49, 6.36, 4.02, 3.53, 2.24, -0.63, -4.24, -4.73, -3.82, -2.91, -3.32, -4.24, -3.32, -1.9, -0.61, 1.41, 4.56, 6.06, 4.46, 1.9, 0.45, -0.0, 0.6, 1.79, 2.12, 7.97, 7.97, 7.97, 7.51, 7.51, 6.94, 6.97, 7.87, 8.33, 8.79, 9.23, 8.79, 7.45, 7.55, 5.36, 1.98, -0.0, -0.0, -0.0, -0.0, 1.19, 2.48, 2.84, 2.84, 3.22, 4.29, 5.06, 2.95, 0.71, -1.2, -3.16, -2.41, -1.41, 0.82, 4.75, 4.11, 4.11, 5.94, 3.07, 0.65, 0.73, 3.22, 4.43, 4.46, 4.4, 3.32, 2.6, 2.68, 2.17, 3.04, 2.8, 4.15, 4.4, 4.8, 5.43, 6.4, 6.54, 6.94, 7.71, 5.34, 1.4, -0.0, 1.55, 3.22, 4.56, 5.38, 6.05, 6.2, 7.12, 8.56, 9.4, 9.85, 9.84, 9.27, 8.05, 3.07, 0.0, -1.34, -2.24, -4.52, -5.94, -4.73, -3.32, -3.51, -4.73, -3.07, -1.2, 0.7, 3.11, 4.56, 3.48, 1.49, -0.0, -0.0, -0.0, 1.2, 2.24, 2.6, 7.97, 7.97, 7.97, 7.51, 7.51, 7.07, 7.51, 7.87, 8.33, 8.79, 9.23, 8.77, 7.45, 8.0, 5.81, 1.74, -0.0, -0.0, -0.76, -0.87, -0.0, 1.66, 2.73, 3.79, 3.48, 3.48, 4.11, 4.19, 3.76, 1.19, -0.76, -2.23, -1.58, -0.0, 3.22, 4.46, 5.43, 6.28, 3.04, -0.0, -0.0, 2.32, 4.56, 5.0, 5.06, 4.81, 3.22, 2.4, 2.12, 2.23, 2.86, 3.83, 4.4, 4.8, 5.75, 6.79, 6.79, 6.98, 6.98, 3.83, 0.61, -0.0, 1.55, 3.2, 4.0, 5.3, 6.09, 6.2, 6.97, 8.01, 9.23, 9.27, 9.62, 9.92, 10.28, 4.12, -1.79, -4.47, -3.13, -3.07, -5.59, -5.34, -3.82, -3.82, -3.45, -1.84, 0.0, 2.2, 3.64, 2.73, 1.24, 0.45, -0.0, -0.63, 0.45, 1.79, 2.91, 2.8, 7.97, 7.97, 7.97, 7.51, 7.51, 7.51, 7.51, 7.97, 8.77, 8.79, 8.87, 8.86, 7.56, 7.55, 6.26, 1.9, -0.0, -0.0, -0.85, -1.49, -1.9, -1.0, 1.0, 2.98, 3.72, 3.72, 4.09, 2.4, 2.6, 2.6, 2.2, -0.0, -0.0, 1.2, 2.53, 2.84, 4.19, 7.2, 4.0, -0.0, -0.71, 1.19, 3.68, 4.71, 5.72, 5.37, 5.06, 3.72, 3.16, 4.43, 4.19, 3.49, 4.4, 5.16, 5.75, 6.21, 6.26, 5.36, 3.58, 1.58, -0.0, -0.0, 1.41, 2.9, 3.15, 5.52, 6.31, 6.24, 6.01, 8.06, 8.8, 8.14, 7.73, 9.08, 9.6, 8.55, 1.26, -3.58, -3.58, -3.13, -3.82, -4.8, -3.49, -3.22, -2.15, -0.59, 0.73, 2.2, 2.73, 0.65, 0.0, -0.45, -1.34, -1.34, 0.0, 1.86, 3.07, 2.5, 7.97, 7.97, 7.97, 7.51, 7.51, 7.51, 7.51, 7.97, 8.86, 8.87, 8.87, 8.42, 8.01, 7.55, 6.26, 2.0, -0.0, -0.0, -0.0, -1.0, -2.0, -1.79, 0.0, 0.45, 1.34, 2.24, 1.9, 1.13, 1.19, 3.49, 2.4, 1.19, 1.41, 1.27, 2.53, 2.21, 3.2, 5.34, 6.0, 2.21, 0.71, -0.0, 2.48, 4.74, 5.93, 6.01, 4.71, 4.71, 4.5, 4.66, 2.84, 2.86, 4.24, 5.31, 5.36, 5.31, 5.31, 3.04, 0.89, -0.0, -0.0, 0.65, 0.61, 2.2, 3.0, 4.56, 6.68, 6.64, 6.07, 7.12, 8.05, 7.15, 6.71, 7.6, 8.05, 8.02, 6.07, 1.26, -1.7, -1.79, -1.86, -3.49, -3.16, -1.84, -1.33, 0.0, 0.61, 1.4, 0.65, -0.6, -0.89, -1.2, -1.7, -1.34, 0.6, 2.5, 2.79, 2.21, 7.97, 7.97, 7.97, 7.4, 7.4, 7.4, 7.4, 7.97, 8.86, 8.87, 8.87, 8.3, 7.97, 7.55, 6.71, 3.39, -0.0, -0.0, -0.0, -0.0, -0.0, 0.89, -0.89, 0.0, 0.0, 1.34, 0.89, -0.0, 1.27, 2.73, 1.27, -0.0, -0.0, 1.2, 1.74, 2.6, 1.34, 2.24, 3.04, 2.6, 1.58, 1.6, 2.84, 4.8, 5.75, 4.03, 3.45, 4.36, 5.63, 6.05, 5.72, 3.84, 3.45, 3.51, 4.47, 4.24, 3.83, 2.23, 0.0, -0.0, 0.76, 1.6, 1.41, 2.29, 2.88, 4.74, 6.7, 7.28, 6.21, 6.79, 6.28, 5.94, 6.79, 6.85, 6.42, 5.31, 3.58, 3.53, 2.17, 0.89, 0.45, -2.5, -2.53, -1.61, -0.54, 0.0, 0.6, 0.89, 0.45, 0.0, -0.0, -0.0, -1.7, -1.26, 1.0, 2.79, 2.53, 1.58, 7.97, 7.97, 7.84, 7.4, 7.4, 7.4, 7.4, 7.87, 8.77, 8.79, 9.23, 8.77, 8.77, 8.79, 8.9, 5.75, 2.21, -0.0, -0.0, 1.58, 2.8, 2.21, -0.0, -0.0, 1.34, 1.58, -0.0, -0.0, 1.13, 1.41, -0.0, -1.34, -0.45, 0.45, 0.89, 3.2, 2.68, 1.6, 2.53, 2.48, 1.74, 2.53, 3.58, 4.22, 3.63, 1.65, 2.54, 3.91, 5.59, 6.24, 5.64, 4.5, 3.91, 2.88, 2.53, 2.4, 1.2, 0.0, 0.0, -0.0, 1.58, 2.31, 2.23, 2.99, 3.91, 5.37, 6.7, 6.8, 4.02, 3.79, 3.64, 4.74, 6.07, 6.0, 4.93, 2.6, 1.34, 1.79, 2.24, 2.17, 2.6, 2.91, 0.0, 0.63, 1.34, 2.12, 2.0, 2.17, 1.7, 1.34, 0.89, 0.6, -0.0, 0.0, 1.2, 2.84, 2.21, 0.95, 7.97, 7.87, 7.4, 7.4, 7.4, 7.4, 7.4, 7.87, 8.33, 9.23, 9.23, 9.23, 9.11, 9.11, 8.8, 6.71, 3.6, 1.26, 2.12, 2.6, 2.97, 2.98, 1.74, 1.9, 2.8, 0.95, 2.21, 1.4, 1.4, 1.4, -0.0, 0.45, -0.45, -0.45, 0.0, 2.8, 2.84, 1.4, 1.98, 2.41, 1.98, 2.53, 3.6, 3.48, 1.23, 0.78, 2.2, 3.07, 3.07, 3.0, 3.07, 2.97, 3.07, 2.33, 2.31, 2.31, 3.11, 0.57, -1.2, -0.81, 0.8, 2.39, 3.19, 3.69, 4.68, 5.4, 5.99, 5.41, 2.88, 1.7, 1.24, 2.51, 3.72, 3.48, 2.86, 1.2, -0.45, 0.45, 0.45, 1.34, 2.17, 3.07, 4.27, 3.32, 4.24, 4.0, 4.0, 3.51, 3.13, 1.34, 0.89, 0.45, 0.45, 0.63, 1.49, 1.88, 1.24, 0.0, 7.97, 7.87, 7.4, 7.4, 7.4, 7.4, 7.4, 7.87, 8.33, 9.23, 9.23, 9.11, 9.11, 9.11, 9.57, 8.42, 5.33, 2.4, 2.12, 2.63, 3.07, 3.07, 2.6, 3.58, 3.58, 4.02, 3.82, 2.91, 2.54, 1.58, 1.79, 0.45, 0.45, 0.45, 0.45, 0.63, 1.74, 1.74, 1.74, 2.41, 2.41, 2.84, 1.74, 1.41, -0.0, 0.79, 1.19, 1.14, 1.03, -0.0, 0.74, 0.76, 0.75, 0.78, 0.76, 2.25, 5.46, 7.69, 2.07, -0.73, -0.0, 3.14, 3.19, 3.16, 3.14, 3.98, 4.67, 4.62, 4.58, 4.65, 4.8, 3.48, 2.24, 0.99, 0.57, 0.0, 0.45, 0.0, 0.45, 0.63, 0.45, 2.4, 4.4, 5.34, 5.2, 5.2, 5.44, 3.82, 3.07, 1.79, 0.0, -0.45, 0.0, 0.45, 0.8, 0.71, 0.0, -0.6, 7.87, 7.84, 7.4, 7.4, 7.4, 7.4, 7.4, 7.69, 8.21, 8.67, 9.11, 9.11, 9.11, 9.11, 9.57, 9.23, 7.15, 3.39, 2.6, 3.13, 3.58, 3.58, 3.13, 3.13, 4.02, 4.47, 5.33, 5.33, 4.43, 3.53, 3.13, 2.24, 1.6, 1.26, 1.26, 0.95, 1.58, 1.2, 0.85, 1.6, 1.8, 1.66, 0.87, -0.0, -0.0, -0.0, -0.0, -0.0, -0.0, -0.0, -0.0, -0.0, -0.73, -0.73, -0.0, 1.14, 3.21, 8.68, 7.82, 0.78, -0.0, 3.11, 3.11, 1.52, 0.79, 1.54, 2.11, 3.09, 3.98, 6.24, 8.62, 8.72, 6.88, 2.53, 0.89, 0.63, 0.89, 1.6, 1.7, 0.32, 0.0, 1.34, 4.02, 5.36, 5.6, 6.4, 6.79, 5.64, 3.97, 3.07, 0.45, -0.89, -0.45, -0.63, -0.57, -1.0, -1.24, -1.7, 7.87, 7.4, 7.4, 7.4, 7.4, 7.4, 7.26, 7.69, 8.17, 8.64, 9.11, 9.11, 9.11, 9.23, 9.54, 9.23, 7.6, 4.44, 2.63, 3.13, 3.58, 4.02, 4.02, 4.02, 4.02, 4.47, 5.36, 5.34, 5.33, 4.47, 4.02, 3.13, 3.13, 1.26, 1.26, 1.26, 0.8, 0.85, 0.85, 0.99, 0.76, 0.87, -0.0, -0.0, -0.0, -1.3, -0.81, -1.05, -1.14, -0.0, -0.0, -1.1, -1.14, -1.19, -1.27, -0.0, 1.19, 7.81, 9.17, 1.6, -0.0, 2.33, 1.07, -0.0, -0.0, 0.75, 1.46, 2.22, 4.28, 5.41, 7.9, 9.17, 9.27, 7.69, 3.82, 2.68, 2.5, 4.43, 6.08, 3.2, 0.89, 1.2, 3.07, 5.16, 4.87, 6.55, 8.36, 7.45, 5.2, 4.3, 2.6, 0.45, -1.79, -1.7, -1.9, -1.9, -1.86, -1.79, 7.84, 7.4, 7.4, 7.4, 7.4, 7.4, 7.4, 7.69, 8.17, 8.64, 9.11, 9.11, 9.11, 9.23, 9.11, 9.11, 7.97, 4.92, 3.13, 3.13, 4.02, 4.47, 4.47, 4.47, 4.47, 4.47, 4.92, 5.36, 5.36, 4.92, 4.47, 4.02, 4.02, 3.13, 1.9, 1.9, 1.4, 1.2, 1.4, 1.0, 0.85, -0.0, -0.0, -0.0, -0.0, -0.0, -1.41, -2.2, -2.4, -1.41, -0.0, -0.0, -1.13, -1.58, 1.34, 1.34, -0.0, 5.09, 7.27, 2.39, -0.0, 1.11, -0.0, -0.0, -0.0, 1.09, 1.09, 2.46, 3.6, 5.44, 6.01, 8.88, 9.83, 7.57, 4.43, 3.79, 5.49, 7.9, 9.0, 8.93, 6.94, 3.97, 3.58, 3.2, 2.07, 4.24, 7.15, 7.56, 6.58, 6.07, 4.24, 1.34, -1.6, -2.8, -2.23, -1.7, -1.79, -1.79, 7.4, 7.4, 7.4, 7.4, 7.4, 7.4, 7.4, 7.69, 8.17, 8.77, 8.79, 9.23, 9.23, 9.23, 9.23, 9.11, 8.33, 5.36, 3.13, 2.68, 3.58, 4.47, 4.92, 4.92, 4.92, 4.47, 4.92, 5.36, 5.36, 5.36, 4.92, 4.92, 4.47, 4.47, 3.13, 2.0, 1.9, 1.58, 1.9, 1.9, 1.0, -0.0, -0.0, -0.0, -0.0, -1.6, -1.27, -2.48, -2.84, -2.84, -1.6, -0.0, -0.0, -0.0, 0.45, 1.79, 2.21, 3.48, 3.4, 2.4, 0.78, -0.0, -0.0, -1.18, -0.0, -0.0, -0.0, 2.26, 3.4, 5.69, 6.4, 9.81, 10.28, 6.55, 3.32, 4.37, 7.12, 10.12, 10.9, 10.55, 10.53, 9.84, 8.14, 3.95, 0.71, 0.0, 3.45, 4.41, 5.36, 4.92, 5.32, 0.0, -1.6, -0.95, 0.0, -0.63, -0.89, -0.89, 7.4, 7.4, 7.4, 7.4, 7.4, 7.4, 7.4, 7.69, 7.74, 8.33, 8.77, 9.23, 9.23, 9.23, 9.23, 9.54, 8.79, 6.23, 3.13, 2.68, 3.53, 4.47, 4.92, 5.36, 5.36, 4.92, 4.92, 5.36, 5.36, 5.36, 5.36, 5.36, 4.92, 4.92, 3.13, 3.04, 2.97, 2.8, 1.9, 1.9, -0.0, -0.0, -0.0, -0.0, -0.0, -1.6, -1.6, -1.4, -1.9, -1.9, -1.79, -0.0, -0.0, -0.0, -0.0, 1.9, 1.8, 1.41, 2.73, 2.4, 2.4, -0.0, -1.19, -2.73, -2.4, -1.7, -0.0, -0.0, 3.68, 8.15, 10.23, 10.05, 8.67, 4.02, 2.66, 5.63, 9.31, 12.45, 13.76, 12.89, 11.53, 11.5, 11.34, 9.45, 2.24, -1.24, 0.61, 2.4, 2.6, 3.58, 5.36, 3.13, 0.8, 0.6, 1.26, 0.63, 0.45, 0.45, 7.4, 7.4, 7.4, 7.4, 7.4, 7.4, 7.4, 7.84, 7.74, 8.3, 8.77, 8.79, 9.11, 9.23, 9.23, 9.67, 9.23, 7.13, 4.02, 2.68, 3.53, 4.3, 4.88, 5.36, 5.36, 4.92, 4.92, 4.92, 4.92, 5.36, 5.36, 5.36, 5.36, 4.92, 4.47, 4.02, 3.58, 3.58, 2.4, 1.58, -0.0, -0.0, -0.0, -0.0, -0.0, -0.0, -0.0, -0.0, -0.0, -0.0, 1.79, 1.34, 1.34, -0.0, -0.0, -0.0, 1.2, 1.6, 2.53, 2.84, 2.48, 1.27, -0.0, -1.27, -3.49, -3.35, -2.3, -0.0, 2.84, 8.41, 12.52, 11.62, 8.49, 5.6, 5.3, 6.64, 10.29, 13.99, 14.95, 13.89, 12.29, 12.56, 12.37, 8.84, 1.79, -1.6, -1.2, 0.0, 0.6, 2.12, 3.51, 4.66, 3.53, 2.63, 2.0, 2.17, 1.79, 1.79, 7.4, 7.4, 7.4, 7.4, 7.4, 7.4, 7.4, 7.4, 7.74, 8.3, 8.77, 8.79, 9.11, 9.23, 9.23, 8.36, 8.77, 7.58, 4.47, 3.07, 3.53, 4.11, 4.11, 3.95, 4.47, 4.47, 3.58, 4.47, 4.92, 4.47, 4.92, 4.92, 4.92, 4.92, 4.47, 4.47, 4.47, 4.02, 3.58, 1.34, 0.89, 0.0, 0.45, -0.0, -0.0, -0.0, -0.0, -0.0, -0.0, -0.0, -0.0, -0.0, -0.0, -0.0, -0.0, -0.0, 1.2, 1.4, 2.53, 2.53, 1.4, 1.2, -0.0, -0.71, -2.41, -2.84, -1.49, -0.0, 3.58, 7.15, 10.73, 12.62, 13.78, 12.14, 9.72, 8.49, 10.26, 12.96, 14.28, 13.77, 12.87, 12.94, 12.07, 10.28, 6.26, 1.7, 0.0, 0.6, 0.45, 0.89, 1.7, 3.39, 4.41, 3.58, 3.07, 2.63, 2.68, 2.68, 7.4, 7.4, 6.94, 6.94, 7.37, 7.4, 7.4, 7.4, 7.84, 7.74, 8.33, 8.77, 9.11, 9.23, 9.23, 9.23, 9.23, 8.92, 7.15, 3.58, 3.04, 3.87, 4.11, 2.54, 3.95, 4.02, 4.02, 4.02, 4.47, 4.92, 4.92, 4.92, 4.47, 4.47, 4.47, 4.47, 4.47, 4.02, 4.02, 3.58, 2.68, 1.79, 0.89, 0.45, -0.0, -0.0, -0.0, -0.0, -0.0, -0.0, -0.0, -0.0, -0.0, -0.0, -0.0, -0.0, 1.4, 1.26, 1.26, 2.8, 1.58, -0.0, -0.0, -1.27, -1.4, -2.41, -1.98, -0.0, 3.9, 6.71, 9.8, 12.87, 15.47, 16.09, 14.21, 11.88, 10.55, 10.91, 12.09, 12.42, 12.94, 12.96, 12.07, 9.83, 7.15, 3.58, 1.6, 1.2, 1.58, 2.0, 2.24, 3.58, 4.92, 4.02, 3.07, 2.68, 3.13, 3.13, 7.4, 6.94, 6.94, 6.94, 7.37, 7.4, 7.4, 7.4, 7.84, 7.74, 8.17, 8.77, 8.79, 9.23, 9.23, 9.23, 9.32, 9.77, 9.39, 6.71, 3.58, 3.39, 3.7, 3.88, 3.87, 3.98, 4.47, 4.47, 4.92, 5.36, 5.36, 4.92, 4.92, 4.47, 4.47, 4.47, 4.47, 4.47, 4.02, 4.02, 3.58, 3.13, 2.24, 1.79, 0.95, -0.0, -0.0, 1.34, -0.0, -1.58, -1.2, -0.0, -0.0, -0.0, -0.0, -0.0, 1.24, 1.58, 2.8, -0.0, -0.0, -0.0, -0.0, -1.41, -1.24, -2.21, -1.74, -0.0, 3.48, 5.75, 7.71, 11.87, 13.99, 12.94, 10.68, 9.1, 8.51, 8.56, 8.53, 10.23, 11.23, 12.05, 11.62, 10.26, 8.46, 4.02, 2.4, 2.5, 4.3, 3.82, 3.53, 4.24, 6.07, 3.97, 2.24, 2.17, 3.07, 3.07, 7.26, 6.79, 6.79, 6.94, 7.37, 7.4, 7.4, 7.4, 7.84, 7.87, 8.3, 8.33, 8.77, 8.79, 9.23, 9.32, 9.32, 9.77, 9.82, 8.94, 6.71, 4.44, 4.11, 4.11, 3.87, 3.98, 4.47, 4.92, 5.36, 5.36, 5.81, 5.36, 4.92, 4.88, 4.88, 4.92, 4.92, 4.47, 4.02, 4.02, 3.58, 3.58, 3.58, 3.13, 2.17, 1.2, 1.34, 0.89, 1.34, -0.0, -1.2, -0.0, -0.0, -0.0, -0.0, -0.0, 0.65, 1.2, 1.2, -1.58, -1.24, -0.76, -0.0, -0.0, -0.65, -1.4, -1.49, -0.0, 1.55, 3.68, 6.01, 7.96, 9.95, 7.97, 0.0, 3.61, 5.71, 6.27, 6.36, 6.81, 8.32, 9.4, 10.28, 10.25, 9.72, 7.45, 3.82, 3.53, 5.81, 7.15, 6.11, 4.52, 4.43, 3.58, 2.4, 2.8, 3.53, 3.53, 7.21, 7.21, 6.79, 6.79, 7.37, 7.4, 7.4, 7.4, 7.84, 7.87, 7.87, 8.3, 8.33, 8.77, 8.79, 9.32, 9.32, 9.32, 9.82, 9.83, 8.94, 6.68, 4.77, 3.87, 3.87, 3.98, 4.02, 4.47, 5.36, 5.81, 5.81, 5.81, 5.36, 4.92, 4.92, 5.36, 5.36, 4.92, 4.47, 4.02, 4.02, 4.02, 4.02, 3.53, 3.07, 2.6, 2.68, 1.79, 0.89, -0.0, -0.0, -0.0, -0.0, -0.0, -0.0, -0.0, 0.65, 1.66, 0.8, -0.6, -1.9, -1.4, -0.0, -0.0, -0.76, -0.87, -0.85, -0.85, -0.88, -0.0, 1.25, 3.45, 12.39, 5.81, -2.48, -0.69, 2.17, 4.15, 4.24, 4.32, 4.96, 6.7, 7.28, 8.49, 9.39, 8.82, 7.56, 6.26, 7.12, 7.15, 5.32, 2.68, 2.68, 2.91, 3.32, 3.82, 5.32, 5.32, 7.21, 7.21, 6.79, 6.79, 7.21, 7.26, 7.26, 7.26, 7.84, 7.87, 7.87, 8.3, 8.33, 8.33, 8.77, 8.87, 9.32, 9.37, 9.37, 9.82, 9.83, 8.94, 7.13, 4.77, 3.53, 3.53, 4.02, 4.47, 5.36, 5.81, 6.26, 5.81, 5.36, 4.92, 4.92, 5.36, 5.36, 5.36, 4.92, 4.92, 4.47, 4.47, 4.47, 3.98, 3.87, 3.39, 4.02, 3.13, 2.24, 1.58, 1.2, -0.0, -0.0, -0.0, -0.0, -0.0, -0.0, 0.81, 2.4, -0.0, -1.24, -1.49, -0.65, -0.65, -0.65, -0.0, -0.0, -0.0, -0.76, -0.99, -0.0, 10.22, 15.12, 16.05, 9.75, 1.2, 0.0, 2.17, 3.08, 2.88, 3.46, 4.14, 5.72, 7.56, 8.36, 8.46, 8.49, 7.6, 4.92, 4.46, 4.24, 3.07, 3.32, 3.97, 3.58, 4.47, 5.36, 5.36, 7.21, 7.21, 6.79, 6.79, 6.79, 7.21, 7.26, 7.26, 7.69, 7.87, 7.87, 8.3, 8.3, 8.33, 8.33, 8.86, 8.86, 8.87, 9.37, 9.37, 9.39, 9.39, 9.39, 7.6, 4.89, 3.53, 3.58, 4.02, 4.92, 5.81, 6.26, 6.26, 5.81, 5.36, 4.92, 4.92, 5.36, 5.36, 5.36, 5.36, 4.92, 4.92, 4.92, 4.88, 4.34, 4.3, 4.3, 4.44, 4.47, 3.87, 3.07, 1.6, 1.4, -0.0, -0.0, -0.0, -0.0, -0.0, 1.19, 2.4, 0.71, -0.71, -1.24, -0.65, -0.0, -0.0, -0.0, 0.87, 0.76, 2.24, 4.92, 8.49, 13.23, 15.36, 16.44, 12.14, 3.53, 1.41, 2.17, 2.28, 2.02, 2.63, 4.61, 6.35, 6.54, 6.07, 6.21, 4.47, 3.39, 3.48, 6.44, 7.28, 6.85, 5.81, 4.87, 3.53, 3.58, 3.58, 7.26, 7.26, 7.21, 6.79, 7.21, 7.21, 7.26, 7.26, 7.26, 7.84, 7.87, 7.87, 8.3, 8.33, 8.33, 8.42, 8.42, 8.86, 8.92, 8.92, 9.39, 9.39, 9.39, 9.39, 8.05, 4.92, 3.58, 3.58, 4.47, 5.36, 6.26, 6.71, 6.71, 5.81, 5.36, 4.92, 4.92, 5.36, 5.36, 5.36, 5.36, 5.36, 5.33, 5.33, 4.89, 4.77, 4.34, 4.8, 5.33, 5.24, 4.11, 2.79, 2.84, 1.27, 1.27, -0.0, -0.0, -0.0, -0.0, 2.73, 2.4, 0.65, -0.0, -0.0, -0.0, -0.0, -0.0, 0.98, 3.16, 4.85, 5.81, 8.05, 10.25, 13.23, 15.03, 16.3, 13.33, 3.82, 0.63, 0.69, 0.74, 1.36, 2.75, 4.07, 3.72, 4.24, 4.87, 4.47, 3.39, 3.07, 4.66, 9.86, 10.84, 8.91, 4.02, 2.68, 2.68, 2.68, 7.26, 7.26, 7.26, 7.21, 7.21, 7.26, 7.26, 7.26, 7.26, 7.69, 7.87, 7.87, 8.3, 8.3, 8.33, 8.42, 8.42, 8.42, 8.42, 8.92, 8.92, 9.39, 9.39, 9.83, 9.39, 8.05, 4.92, 3.58, 4.02, 4.92, 5.81, 6.26, 6.71, 7.13, 6.68, 6.23, 5.33, 4.92, 4.92, 5.36, 5.36, 5.36, 5.36, 5.33, 5.33, 4.88, 4.88, 4.8, 5.24, 5.7, 4.77, 4.11, 2.79, 1.84, 1.6, 0.87, -0.0, -0.0, -0.0, 0.87, 1.41, 2.6, 1.98, 0.8, -0.0, -0.0, -0.0, 1.98, 3.84, 5.75, 6.94, 7.89, 9.7, 11.45, 12.29, 13.43, 15.67, 8.76, 0.0, 0.0, 0.0, 0.71, 1.32, 1.35, 2.23, 3.72, 5.16, 4.43, 3.58, 3.07, 3.58, 6.26, 10.93, 9.58, 5.77, 3.09, 3.07, 3.07, 7.26, 7.26, 7.26, 7.26, 7.26, 7.26, 7.26, 7.26, 7.26, 7.26, 7.84, 7.87, 7.87, 8.3, 8.3, 8.42, 8.42, 8.42, 8.42, 8.42, 8.47, 8.92, 9.39, 9.39, 9.83, 9.39, 7.6, 7.15, 4.92, 4.47, 4.92, 5.81, 6.71, 7.13, 7.13, 6.68, 6.23, 5.36, 4.92, 4.92, 4.92, 5.36, 5.36, 5.36, 4.92, 4.88, 4.44, 4.88, 5.33, 5.78, 5.33, 4.34, 3.6, 2.84, 1.8, 1.8, 1.27, 1.6, -0.0, -0.0, 1.66, 3.48, 3.58, 1.74, -0.0, -0.0, 1.0, 1.34, 3.13, 5.29, 7.11, 8.05, 8.49, 8.94, 10.16, 12.3, 13.77, 13.78, 3.97, 0.0, 0.54, 2.29, 2.26, 0.7, 1.35, 2.98, 3.48, 3.32, 3.58, 3.58, 3.58, 4.92, 9.81, 9.62, 7.81, 5.2, 3.82, 3.82, 7.26, 7.26, 7.26, 7.26, 7.26, 7.26, 7.26, 7.26, 7.26, 7.26, 7.69, 7.84, 7.87, 7.87, 8.3, 8.41, 8.42, 8.42, 8.42, 8.42, 8.42, 8.92, 8.92, 9.39, 9.39, 9.39, 9.39, 8.49, 6.71, 4.92, 4.92, 5.36, 6.26, 6.71, 7.13, 7.13, 6.71, 6.26, 5.81, 5.36, 5.36, 5.33, 4.92, 4.92, 4.85, 4.77, 4.88, 4.88, 4.88, 5.33, 5.33, 4.88, 4.3, 3.35, 2.48, 1.8, 2.48, 1.41, -0.0, -0.0, 2.84, 4.66, 3.2, 0.87, -0.0, 0.81, 1.49, 0.89, 0.6, 4.15, 6.71, 8.05, 7.15, 7.11, 9.54, 11.84, 11.86, 12.52, 13.49, 8.49, 2.91, 3.04, 3.04, 1.73, 0.61, 0.0, 0.71, 0.99, 2.0, 2.63, 3.13, 3.58, 5.32, 8.38, 8.06, 7.06, 5.86, 5.86, 7.69, 7.69, 7.26, 7.26, 7.26, 7.26, 7.26, 7.26, 7.26, 7.26, 7.26, 7.84, 7.87, 7.87, 7.87, 8.3, 8.41, 8.41, 8.42, 8.42, 8.42, 8.42, 8.42, 8.92, 8.92, 8.92, 9.37, 8.94, 7.6, 6.26, 5.36, 5.36, 5.81, 6.26, 7.15, 7.15, 7.15, 6.71, 6.71, 6.26, 5.81, 5.81, 5.36, 5.24, 5.57, 6.02, 5.31, 4.44, 4.88, 4.89, 5.33, 4.89, 4.3, 3.72, 3.16, 2.86, 2.48, 2.48, 1.8, 0.57, 4.15, 4.8, 2.41, -0.0, -0.0, 1.6, 3.79, 4.65, 1.9, 2.41, 4.47, 6.0, 8.55, 8.82, 9.11, 9.84, 9.84, 9.83, 12.52, 15.63, 12.94, 9.83, 7.61, 6.51, 5.02, 2.4, 1.49, 1.7, 2.24, 2.68, 3.32, 4.8, 6.8, 7.28, 8.06, 8.25, 7.98, 7.98, 7.69, 7.69, 7.26, 7.26, 7.26, 7.26, 7.21, 7.21, 7.21, 7.26, 7.26, 7.26, 7.84, 7.87, 7.87, 7.87, 7.87, 7.97, 8.41, 8.42, 8.42, 8.42, 8.42, 8.42, 8.92, 8.92, 8.92, 8.92, 8.05, 6.71, 5.81, 5.36, 5.81, 6.26, 6.71, 7.15, 7.15, 7.15, 7.15, 7.15, 6.71, 6.68, 6.16, 5.99, 5.81, 6.51, 6.07, 5.7, 5.7, 5.7, 5.24, 5.24, 5.09, 3.88, 3.78, 3.48, 3.15, 2.48, 2.23, 2.84, 3.58, 3.35, 2.4, -0.0, -0.0, 0.88, 3.22, 6.01, 5.01, 2.24, 0.85, 3.47, 7.69, 11.99, 14.44, 11.18, 7.64, 6.64, 8.3, 14.57, 16.93, 15.05, 12.61, 11.49, 11.62, 11.18, 10.71, 8.02, 7.01, 6.54, 6.64, 7.54, 8.49, 9.2, 8.93, 9.86, 9.45, 9.45, 7.51, 7.51, 7.09, 7.09, 7.26, 7.21, 7.21, 6.79, 6.79, 7.21, 7.26, 7.26, 7.4, 7.84, 7.87, 7.87, 7.87, 7.87, 7.97, 7.97, 8.41, 8.42, 8.42, 8.42, 8.42, 8.92, 8.92, 8.92, 8.49, 6.26, 5.36, 5.36, 5.34, 5.81, 6.26, 6.71, 7.15, 7.15, 7.15, 7.6, 7.15, 7.13, 6.51, 6.47, 6.47, 6.47, 6.94, 6.94, 7.06, 6.6, 6.14, 5.7, 5.24, 5.09, 4.6, 4.0, 3.48, 3.15, 2.86, 2.86, 2.68, 1.4, 1.49, 0.76, -0.0, -0.0, 1.6, 4.74, 6.01, 5.06, 2.53, 3.48, 6.13, 11.21, 17.22, 15.03, 2.79, 0.0, 4.71, 10.65, 15.26, 14.24, 10.71, 11.18, 12.52, 13.81, 14.19, 14.11, 11.84, 9.18, 8.0, 7.85, 8.4, 9.34, 10.27, 10.38, 10.79, 10.79, 7.51, 7.51, 7.51, 7.09, 7.01, 7.01, 6.79, 6.79, 6.79, 6.79, 7.21, 7.26, 7.26, 7.4, 7.4, 7.87, 7.87, 7.87, 7.97, 7.97, 7.97, 8.41, 8.42, 8.42, 8.42, 8.47, 8.92, 8.92, 8.47, 7.6, 5.81, 5.36, 5.36, 5.81, 5.81, 6.26, 6.71, 7.15, 7.15, 7.15, 7.15, 7.13, 6.61, 6.47, 6.47, 6.47, 6.61, 7.06, 7.51, 7.4, 6.51, 6.14, 5.7, 5.24, 5.09, 4.55, 4.29, 3.48, 3.15, 3.15, 2.86, 1.49, 2.73, 0.71, 0.54, 0.85, 1.6, 2.68, 4.74, 5.93, 5.15, 4.57, 6.26, 8.94, 15.47, 18.17, 2.68, -2.98, 0.64, 7.61, 11.8, 11.45, 7.6, 4.87, 8.92, 11.61, 13.4, 13.81, 11.4, 7.89, 5.69, 5.31, 6.54, 7.56, 8.97, 10.43, 9.96, 9.96, 7.51, 7.51, 7.51, 7.31, 6.8, 6.8, 6.51, 6.6, 6.79, 6.79, 6.79, 7.21, 7.26, 7.4, 7.4, 7.4, 7.4, 7.84, 7.97, 7.97, 7.97, 7.97, 8.41, 8.41, 8.41, 8.42, 8.47, 8.92, 8.92, 8.47, 7.13, 6.26, 5.36, 5.36, 5.81, 5.81, 6.26, 6.71, 7.15, 7.15, 7.15, 7.13, 6.61, 6.6, 6.6, 6.6, 6.61, 7.06, 7.4, 7.4, 7.4, 6.61, 6.16, 5.7, 5.09, 4.55, 4.65, 4.07, 3.48, 3.15, 3.49, 3.79, 2.73, 2.73, 0.79, 1.66, 2.53, 3.16, 4.46, 5.75, 5.82, 5.81, 6.26, 8.05, 12.07, 18.06, 12.14, 1.2, 0.0, 5.59, 9.32, 8.24, 3.53, 2.5, 3.39, 8.94, 11.18, 11.61, 8.38, 4.0, 2.53, 2.21, 4.4, 6.11, 7.01, 8.97, 9.18, 9.18, 7.51, 7.51, 7.51, 7.31, 6.8, 6.67, 6.28, 6.28, 6.51, 6.72, 6.79, 6.79, 6.94, 7.37, 6.94, 7.4, 7.4, 7.4, 7.4, 7.97, 7.97, 7.97, 7.97, 7.97, 7.97, 8.41, 8.42, 8.47, 8.92, 8.92, 8.03, 6.68, 5.81, 5.36, 5.36, 5.81, 6.26, 6.71, 6.71, 7.15, 7.15, 7.13, 6.68, 6.61, 6.6, 6.6, 6.6, 6.61, 6.94, 6.94, 7.4, 6.94, 6.61, 6.14, 5.09, 4.8, 4.65, 4.41, 4.07, 3.48, 3.49, 3.49, 2.4, 1.19, 1.19, 2.48, 2.53, 3.2, 4.15, 4.46, 4.74, 6.28, 7.81, 9.26, 10.73, 13.21, 15.1, 12.14, 8.49, 8.0, 6.63, 2.4, 0.6, 1.61, 4.4, 7.97, 8.47, 3.97, 2.68, 2.5, 1.9, 1.9, 2.54, 4.41, 4.43, 4.87, 7.28, 7.28, 8.0, 8.0, 8.0, 7.51, 7.01, 6.28, 6.28, 5.75, 5.75, 6.1, 6.3, 6.79, 6.79, 6.79, 6.94, 6.94, 7.4, 7.4, 7.4, 7.4, 7.97, 7.97, 7.97, 7.97, 7.97, 7.97, 8.41, 8.42, 8.92, 8.86, 8.42, 7.58, 6.23, 5.36, 5.36, 5.36, 5.81, 6.26, 6.71, 6.71, 6.71, 6.71, 6.68, 6.68, 6.6, 6.16, 6.6, 6.6, 6.6, 6.61, 7.06, 7.06, 7.06, 6.16, 5.24, 4.8, 4.41, 4.11, 4.11, 4.07, 4.07, 3.49, 2.4, 1.8, 1.74, 2.84, 1.7, 2.54, 2.21, 2.4, 3.68, 5.69, 9.8, 10.93, 10.25, 8.49, 9.83, 13.23, 16.33, 16.48, 9.62, 0.95, -0.0, 1.86, 3.39, 3.39, 2.15, 1.58, 1.58, 1.86, 1.86, 2.12, 2.12, 2.24, 3.58, 4.02, 5.32, 5.32, 8.0, 8.0, 8.0, 7.74, 7.69, 7.01, 6.51, 5.75, 5.37, 5.6, 6.0, 6.3, 6.3, 6.3, 6.94, 6.94, 6.94, 7.4, 7.4, 7.4, 7.51, 7.51, 7.97, 7.97, 7.97, 7.97, 7.97, 8.42, 8.42, 8.86, 8.86, 7.97, 6.68, 5.81, 5.36, 5.36, 5.81, 6.26, 6.71, 6.71, 6.71, 6.71, 6.71, 6.65, 6.23, 6.23, 6.23, 6.23, 6.23, 6.68, 6.68, 6.61, 6.61, 6.16, 5.7, 4.8, 4.11, 3.83, 4.07, 4.07, 4.07, 3.49, 2.4, 1.74, 1.24, 3.35, 2.97, 1.74, 0.81, 1.6, 3.11, 6.44, 9.2, 11.2, 9.33, 6.26, 4.41, 10.28, 16.52, 19.55, 15.14, 4.02, 0.45, 0.89, 2.6, 2.91, 2.15, 1.86, 1.7, 1.7, 1.7, 1.79, 1.79, 1.79, 2.24, 3.13, 4.02, 4.92, 8.17, 8.17, 8.17, 8.17, 7.74, 7.69, 7.21, 6.3, 5.6, 5.47, 5.6, 5.81, 6.3, 6.47, 6.47, 6.51, 6.94, 6.94, 7.4, 7.4, 7.51, 7.51, 7.97, 7.97, 7.97, 7.97, 7.97, 7.97, 8.42, 8.86, 8.86, 8.42, 7.51, 6.23, 5.36, 4.92, 5.36, 5.81, 6.23, 6.68, 6.71, 6.71, 6.71, 6.71, 6.23, 6.23, 6.23, 6.26, 6.26, 6.26, 6.23, 6.68, 6.6, 6.16, 5.57, 5.31, 4.11, 4.11, 4.65, 4.55, 4.07, 3.79, 3.49, 1.58, 1.26, 3.72, 2.48, 0.76, 0.82, 1.7, 3.22, 5.06, 7.64, 10.29, 12.86, 9.49, 4.0, 8.3, 13.42, 15.39, 12.07, 4.88, 1.79, 0.63, 0.89, 1.79, 2.17, 2.17, 1.79, 1.79, 1.79, 1.79, 1.79, 1.79, 2.12, 3.07, 3.82, 4.02, 8.17, 8.17, 8.17, 8.3, 8.3, 7.87, 7.87, 6.97, 6.47, 5.31, 5.7, 5.99, 6.47, 6.47, 6.51, 6.51, 6.51, 6.94, 6.97, 7.51, 7.51, 7.51, 7.51, 7.97, 7.97, 7.97, 7.97, 7.97, 7.97, 8.42, 8.86, 8.86, 8.41, 7.06, 5.81, 4.92, 4.92, 5.81, 6.23, 6.23, 6.68, 6.68, 6.71, 6.26, 6.71, 6.23, 6.26, 6.26, 5.81, 5.81, 6.23, 6.23, 6.6, 6.6, 6.47, 5.81, 4.65, 4.07, 4.55, 4.55, 4.37, 4.07, 3.48, 3.79, 3.72, 2.48, -0.0, -0.0, 0.81, 2.3, 2.4, 3.11, 5.03, 7.9, 12.87, 13.15, 11.09, 8.94, 9.58, 6.36, 2.4, 1.2, 0.63, -0.6, -0.63, 0.45, 1.34, 1.34, 1.79, 1.79, 1.79, 1.79, 2.17, 2.12, 2.23, 2.8, 4.09, 3.82, 8.17, 8.17, 8.17, 8.33, 8.33, 8.33, 8.3, 7.97, 7.07, 7.13, 6.61, 6.6, 6.47, 6.51, 6.94, 6.94, 6.51, 6.51, 6.94, 7.07, 7.51, 7.51, 7.51, 7.51, 7.97, 7.97, 7.97, 7.97, 7.97, 8.42, 8.86, 8.86, 8.42, 7.51, 6.23, 4.92, 4.92, 5.36, 5.78, 6.23, 6.6, 6.61, 6.68, 6.68, 6.71, 7.15, 6.26, 6.23, 6.23, 5.78, 6.23, 6.23, 6.6, 7.06, 6.94, 6.3, 5.21, 4.37, 4.4, 4.4, 4.37, 4.37, 4.65, 3.79, 2.73, 1.19, 0.79, -0.0, 0.79, 1.55, 1.6, 2.29, 3.76, 6.7, 8.94, 12.11, 13.74, 15.74, 14.07, 8.24, 1.26, -0.63, -0.57, -1.26, -0.6, 0.0, 0.45, 0.89, 1.34, 1.79, 2.17, 2.17, 2.4, 1.9, 3.22, 3.16, 3.79, 3.79, 8.17, 8.17, 8.17, 8.3, 8.33, 8.33, 8.42, 7.97, 7.97, 7.58, 7.07, 7.06, 6.94, 6.94, 6.94, 6.94, 6.94, 6.51, 6.51, 7.07, 7.51, 7.51, 7.51, 7.51, 7.51, 7.97, 7.97, 7.97, 7.97, 7.97, 8.42, 8.86, 8.86, 8.41, 7.06, 5.34, 4.92, 4.92, 5.34, 5.7, 6.16, 6.6, 6.61, 6.61, 6.61, 6.68, 6.71, 6.71, 6.26, 6.23, 6.23, 6.68, 6.68, 7.06, 7.06, 6.3, 5.21, 4.55, 4.4, 4.52, 4.27, 4.37, 4.0, 3.79, 2.73, 2.2, 1.19, 1.08, 0.88, 0.81, 1.55, 2.68, 4.8, 5.43, 6.7, 8.15, 11.87, 15.75, 17.73, 16.37, 13.28, 6.7, 0.0, -2.8, -1.7, -0.63, 0.0, 0.45, 1.2, 2.17, 2.4, 2.5, 2.53, 2.53, 2.53, 1.9, 1.9, 1.9, 8.17, 8.17, 8.17, 8.17, 8.3, 8.33, 8.42, 8.41, 7.97, 7.97, 7.51, 7.51, 7.4, 7.4, 6.97, 7.06, 7.06, 7.06, 6.61, 7.06, 7.51, 7.51, 7.51, 7.51, 7.51, 7.97, 7.97, 7.97, 7.97, 7.97, 8.42, 8.86, 8.86, 8.42, 7.51, 6.23, 5.36, 4.92, 5.36, 5.78, 6.14, 6.04, 6.47, 6.47, 6.47, 6.61, 6.68, 6.71, 6.71, 6.26, 6.71, 6.71, 7.13, 7.13, 7.06, 6.47, 5.6, 5.08, 4.4, 4.52, 4.27, 4.27, 4.37, 4.11, 2.73, 2.2, 1.19, -0.0, -0.0, 0.88, 2.41, 2.84, 3.84, 5.15, 5.43, 7.06, 9.9, 13.43, 16.06, 15.75, 15.74, 15.91, 9.45, -0.6, -2.6, -1.2, 0.0, 0.6, 1.58, 2.5, 2.5, 2.53, 2.23, 1.49, 0.95, 0.45, 0.45, 0.45, 8.17, 8.17, 8.17, 8.17, 8.3, 8.3, 7.87, 7.87, 7.87, 7.87, 7.87, 7.84, 7.4, 7.4, 7.51, 7.51, 7.07, 7.07, 7.06, 7.06, 7.07, 7.51, 7.51, 7.51, 7.51, 7.51, 7.97, 7.97, 7.97, 7.97, 8.41, 8.42, 8.86, 8.77, 8.41, 7.06, 5.78, 4.89, 4.92, 5.33, 5.78, 6.16, 6.47, 6.47, 6.47, 6.6, 6.6, 6.68, 6.68, 6.71, 6.71, 6.71, 6.71, 6.68, 6.61, 6.1, 6.0, 5.08, 4.8, 4.52, 4.11, 4.27, 4.0, 3.48, 3.49, 2.2, 1.55, 0.71, -0.0, 1.6, 2.48, 2.68, 2.4, 4.01, 5.43, 6.64, 9.33, 11.45, 12.39, 12.89, 13.46, 15.29, 17.06, 6.85, -0.95, -0.8, 0.63, 1.58, 1.61, 1.9, 2.53, 1.2, 1.24, 0.63, 0.45, 0.45, 0.45, 0.45, 8.17, 8.17, 8.17, 8.17, 8.17, 7.87, 7.87, 7.87, 7.87, 7.87, 7.87, 7.87, 7.87, 7.4, 7.51, 7.51, 7.51, 7.51, 7.07, 7.06, 7.06, 7.51, 7.51, 7.51, 7.51, 7.51, 7.51, 7.97, 7.97, 7.87, 7.87, 8.33, 8.33, 8.33, 8.33, 7.97, 6.61, 5.78, 4.89, 4.92, 5.33, 5.78, 6.16, 6.16, 6.6, 6.61, 6.61, 6.61, 6.6, 6.68, 6.71, 6.71, 6.71, 6.23, 6.23, 6.3, 6.0, 5.72, 4.8, 4.52, 4.11, 4.27, 4.0, 3.79, 2.86, 2.73, 1.41, 0.85, 1.0, 1.74, 1.8, 1.55, 2.76, 4.54, 5.75, 6.98, 8.36, 9.33, 9.27, 8.6, 11.06, 15.38, 18.71, 14.18, 2.17, -0.6, 0.6, 1.24, 0.0, 1.34, 0.89, 0.0, 0.0, 0.0, 0.0, 0.45, 0.45, 0.45, 8.17, 8.17, 8.17, 7.74, 7.74, 7.87, 7.87, 7.87, 7.87, 7.87, 7.87, 7.87, 7.87, 7.84, 7.51, 7.51, 7.51, 7.51, 7.51, 7.07, 7.06, 7.07, 7.51, 7.51, 7.51, 7.51, 7.51, 7.97, 7.87, 7.87, 7.87, 8.3, 8.33, 8.33, 8.33, 7.97, 7.51, 6.6, 5.78, 4.89, 4.88, 4.89, 5.33, 5.78, 6.16, 6.16, 6.16, 6.23, 6.23, 6.23, 6.26, 5.81, 5.81, 5.81, 6.04, 6.23, 6.0, 5.4, 5.09, 4.6, 4.11, 3.88, 3.78, 3.48, 2.86, 2.73, 1.27, 1.27, 1.27, 1.6, 1.49, 1.66, 3.58, 5.09, 5.75, 6.07, 6.4, 7.06, 6.95, 6.14, 9.17, 14.5, 17.7, 17.51, 8.23, 0.0, -1.0, -1.49, -2.24, -2.12, -1.79, -1.34, -1.34, -1.34, -1.34, -1.79, -1.79, -1.79, 8.17, 8.17, 7.74, 7.74, 7.74, 7.87, 7.87, 7.87, 7.87, 7.87, 7.87, 7.87, 7.87, 7.97, 7.51, 7.51, 7.51, 7.51, 7.51, 7.51, 7.07, 7.07, 7.51, 7.51, 7.51, 7.51, 7.51, 7.97, 7.87, 7.87, 7.87, 7.87, 8.33, 8.33, 8.33, 7.87, 7.97, 7.51, 6.6, 5.7, 4.89, 4.44, 4.88, 5.33, 5.24, 5.26, 5.26, 5.78, 5.81, 5.81, 5.81, 5.81, 5.81, 5.81, 5.99, 5.81, 5.81, 5.4, 5.09, 4.11, 4.11, 3.72, 3.43, 3.48, 2.86, 3.48, 2.48, 1.27, 1.6, 1.26, 1.6, 2.98, 4.15, 4.66, 4.19, 3.47, 4.16, 4.96, 6.14, 6.24, 7.97, 11.9, 14.74, 17.87, 13.68, 0.0, -4.66, -3.53, -2.63, -2.4, -2.17, -2.24, -2.24, -2.24, -2.24, -2.24, -2.24, -2.24, 8.17, 8.17, 7.74, 7.74, 7.74, 7.69, 7.84, 7.87, 7.87, 7.87, 7.87, 7.87, 7.97, 7.97, 7.51, 7.51, 7.51, 7.51, 7.51, 7.51, 7.51, 7.06, 7.51, 7.51, 7.51, 7.51, 7.51, 7.95, 7.87, 7.87, 7.87, 7.87, 8.33, 8.33, 8.3, 7.87, 7.97, 7.51, 7.51, 6.61, 5.7, 5.24, 4.77, 5.24, 5.24, 5.24, 4.89, 5.36, 5.36, 5.36, 5.81, 5.81, 5.81, 5.81, 5.57, 5.81, 5.81, 5.57, 5.02, 4.11, 4.0, 3.72, 3.72, 3.43, 3.16, 2.41, 2.41, 0.71, 1.26, 1.2, 2.24, 1.26, 2.98, 1.83, 0.78, 1.55, 3.4, 3.91, 4.96, 6.24, 7.35, 8.27, 10.81, 15.05, 17.88, 3.45, -3.13, -2.6, -0.99, -1.26, -1.7, -2.24, -2.24, -2.24, -2.24, -1.79, -1.79, -1.79, 8.17, 8.17, 7.74, 7.74, 7.74, 7.69, 7.84, 7.84, 7.84, 7.84, 7.87, 7.87, 7.84, 7.84, 7.95, 7.51, 7.51, 7.51, 7.51, 7.51, 7.07, 7.07, 7.51, 7.4, 7.51, 7.51, 7.4, 7.84, 7.87, 7.87, 7.87, 7.87, 8.3, 8.33, 8.3, 7.87, 7.51, 7.51, 7.58, 7.51, 7.06, 6.04, 5.99, 5.57, 5.7, 5.78, 5.81, 5.81, 5.81, 5.81, 6.26, 6.26, 6.26, 5.7, 5.57, 5.81, 5.99, 5.57, 4.6, 4.11, 4.0, 3.72, 3.72, 3.72, 2.84, 2.84, 1.6, 2.21, 3.22, 2.98, 1.9, -0.0, -0.87, -0.82, -0.0, 0.78, 2.35, 3.0, 4.03, 6.32, 7.02, 7.35, 9.0, 12.13, 18.15, 1.0, -3.13, -1.24, 0.71, 1.58, 0.63, -0.89, -1.7, -1.79, -1.34, -0.63, -0.63, -0.63, 8.17, 7.74, 7.74, 7.74, 7.69, 7.84, 7.84, 7.4, 7.4, 7.4, 7.84, 7.84, 7.4, 7.4, 7.4, 7.4, 7.4, 7.4, 7.51, 7.51, 7.07, 7.07, 7.4, 7.4, 7.4, 7.4, 7.4, 7.84, 7.87, 7.87, 7.87, 7.87, 8.3, 8.33, 8.33, 7.87, 7.4, 7.51, 7.58, 7.51, 7.51, 7.51, 6.94, 6.94, 7.06, 7.13, 6.71, 6.71, 6.68, 6.23, 6.23, 6.26, 6.26, 5.7, 5.99, 5.99, 5.99, 5.51, 4.6, 4.11, 4.0, 4.0, 3.72, 3.35, 3.14, 2.23, 1.74, 2.53, 3.48, 2.53, 2.3, 0.87, -0.0, -1.66, -0.76, -0.0, 0.82, 1.72, 3.33, 4.95, 6.32, 7.02, 8.67, 11.62, 20.45, 10.28, -0.0, -0.95, 1.34, 3.58, 4.02, 1.2, -0.63, -0.4, -0.0, -0.0, -0.0, -0.0, 7.74, 7.74, 7.74, 7.69, 7.69, 7.84, 7.4, 7.4, 7.4, 7.4, 7.4, 7.4, 7.4, 7.4, 7.4, 7.4, 7.4, 7.4, 7.51, 7.51, 7.51, 7.4, 7.4, 7.4, 7.4, 7.4, 7.4, 7.4, 7.84, 7.84, 7.84, 7.87, 8.3, 8.33, 8.33, 7.87, 7.4, 7.51, 7.51, 7.51, 7.58, 7.51, 7.51, 7.51, 7.58, 7.6, 7.6, 7.13, 6.68, 6.68, 6.71, 6.26, 6.26, 5.7, 5.99, 6.04, 6.14, 5.09, 4.6, 4.11, 4.11, 3.7, 3.6, 3.6, 3.14, 2.23, 2.21, 2.53, 2.53, 2.4, 1.55, 0.81, -0.0, -0.81, -1.55, -0.0, -0.0, 0.81, 2.2, 4.29, 5.69, 7.41, 9.27, 18.96, 19.21, 7.94, 0.45, 0.0, 1.2, 2.79, 3.6, 1.7, -0.0, -0.0, 0.57, 1.24, 1.24, 1.24, 7.74, 7.74, 7.69, 7.69, 7.69, 7.4, 7.4, 7.4, 7.4, 7.4, 7.4, 7.4, 7.4, 7.4, 7.4, 7.4, 7.4, 7.4, 7.4, 7.4, 7.4, 7.4, 7.4, 7.4, 7.4, 7.4, 7.4, 7.4, 7.84, 7.84, 7.84, 7.87, 7.87, 8.33, 8.33, 8.3, 7.84, 7.4, 7.07, 7.51, 7.51, 7.58, 7.58, 7.58, 7.58, 7.6, 7.15, 7.15, 6.68, 6.71, 6.71, 6.26, 5.78, 5.7, 6.14, 6.16, 5.7, 5.24, 4.11, 4.11, 4.3, 3.87, 3.82, 3.6, 2.79, 2.53, 2.53, 1.84, 1.8, 1.66, 0.88, -0.0, -0.0, -0.81, -1.66, -0.81, -0.0, 0.81, 3.22, 3.35, 4.74, 7.06, 12.29, 19.51, 16.96, 2.15, -2.63, -0.57, 0.0, 0.61, 0.0, 0.0, -0.0, -0.0, 0.65, 1.16, 1.16, 1.16, 7.69, 7.69, 7.69, 7.69, 7.26, 7.4, 7.4, 7.4, 7.4, 7.4, 7.4, 7.4, 7.4, 7.4, 7.4, 7.4, 7.4, 7.4, 7.4, 7.4, 7.4, 7.4, 7.4, 7.4, 7.4, 7.4, 7.4, 7.4, 7.4, 7.4, 7.84, 7.84, 7.87, 8.3, 8.33, 8.3, 7.87, 7.4, 7.07, 7.07, 7.07, 7.58, 7.58, 7.58, 7.6, 7.15, 7.15, 6.71, 6.71, 6.71, 6.71, 6.26, 5.34, 5.7, 5.7, 6.14, 5.7, 4.77, 4.3, 4.3, 4.3, 3.87, 3.82, 3.07, 3.07, 2.53, 2.53, 1.84, 1.6, 0.87, -0.0, -0.88, -0.79, -0.98, -1.49, -2.68, -0.88, 0.81, 3.47, 4.01, 4.43, 6.44, 10.48, 16.95, 18.23, 2.51, -3.82, -2.63, -2.17, -3.13, -2.63, -0.99, -0.0, 0.65, 0.61, 1.33, 1.33, 1.33, 7.69, 7.69, 7.69, 7.26, 7.26, 7.4, 7.4, 7.4, 7.4, 7.4, 7.4, 7.4, 7.4, 7.4, 7.4, 7.4, 7.4, 7.4, 7.4, 7.4, 7.4, 7.4, 7.4, 7.4, 7.4, 7.4, 7.4, 7.4, 7.4, 7.4, 7.4, 7.84, 7.84, 7.87, 8.3, 8.3, 7.87, 7.4, 7.07, 7.06, 7.06, 7.13, 7.13, 7.13, 7.15, 7.15, 6.71, 6.71, 6.71, 6.71, 6.71, 6.26, 5.33, 5.78, 5.7, 5.7, 5.24, 4.77, 4.3, 4.43, 4.43, 3.98, 3.39, 3.32, 2.5, 2.5, 2.21, 2.15, 1.33, -0.0, -0.79, -0.87, -0.99, -0.99, -0.87, -1.6, -1.74, -0.0, 2.68, 3.79, 4.11, 7.42, 9.6, 13.23, 18.04, 13.23, 0.0, -4.47, -3.39, -3.07, -2.53, -1.16, -0.0, 0.61, 0.7, 1.33, 1.33, 1.33, 7.69, 7.69, 7.26, 7.26, 7.26, 7.4, 7.4, 7.4, 7.4, 7.4, 7.4, 7.4, 7.4, 7.4, 7.37, 7.4, 7.4, 7.4, 7.4, 7.4, 7.4, 7.4, 7.4, 7.4, 7.4, 7.4, 7.4, 7.4, 7.4, 7.4, 7.4, 7.4, 7.4, 7.84, 7.87, 8.3, 7.87, 7.4, 7.4, 7.06, 7.06, 7.13, 7.13, 7.13, 7.13, 7.15, 6.71, 6.71, 6.71, 7.15, 6.68, 5.36, 5.33, 5.78, 5.78, 5.78, 5.33, 4.44, 4.44, 4.44, 4.43, 3.98, 3.39, 2.91, 2.8, 2.4, 1.9, 1.88, 0.61, -0.0, -0.0, -0.85, -0.85, -0.99, -0.87, -0.87, -0.85, -0.85, 0.99, 2.84, 5.2, 6.7, 9.06, 11.84, 15.93, 18.96, 8.05, -1.26, -2.63, -1.61, -1.94, -1.27, -0.0, 1.33, 1.49, 1.41, 1.41, 1.41, 7.69, 7.69, 7.26, 7.26, 7.26, 7.26, 7.4, 7.4, 7.4, 7.4, 7.4, 7.4, 7.4, 6.94, 6.94, 6.94, 7.4, 7.4, 7.4, 7.4, 7.4, 7.4, 7.4, 7.4, 7.4, 7.4, 7.4, 7.4, 7.4, 7.4, 7.26, 7.26, 7.26, 7.4, 7.87, 7.87, 7.87, 7.4, 6.97, 7.06, 6.61, 6.68, 7.13, 7.13, 7.13, 6.68, 6.68, 6.71, 6.68, 7.13, 6.68, 5.36, 5.36, 5.78, 5.78, 5.34, 4.89, 4.44, 4.44, 4.47, 3.98, 3.98, 3.53, 3.07, 2.4, 2.4, 1.9, 1.2, 0.65, -0.0, -0.0, -0.8, -1.58, -1.58, -0.85, -0.0, -0.0, -0.0, -0.0, 3.6, 4.66, 6.51, 8.9, 12.07, 15.2, 17.88, 16.54, 7.57, 0.63, -0.54, -0.61, -1.3, -0.0, 1.35, 1.35, 2.4, 2.4, 2.4, 7.69, 7.69, 7.26, 7.21, 7.21, 7.21, 7.26, 7.26, 7.26, 7.26, 7.4, 7.4, 6.94, 6.94, 6.94, 6.94, 7.37, 7.4, 7.4, 7.4, 7.4, 7.4, 7.4, 7.4, 7.4, 7.4, 7.26, 7.26, 7.26, 7.26, 7.26, 7.26, 7.26, 7.4, 7.4, 7.87, 7.87, 7.4, 6.94, 6.51, 6.61, 6.61, 6.61, 7.06, 6.61, 6.68, 6.68, 6.68, 6.68, 7.13, 6.68, 5.36, 5.36, 5.81, 5.36, 5.36, 4.88, 4.47, 4.47, 4.47, 4.02, 3.97, 3.53, 3.07, 2.6, 1.86, 1.86, 1.58, 1.26, 0.8, -0.0, -0.63, -1.2, -1.2, -1.2, -1.26, -0.0, -0.0, 1.79, 2.97, 4.41, 6.65, 8.94, 12.07, 15.2, 17.43, 16.54, 12.96, 7.15, 2.0, -0.59, -1.41, -0.0, 1.41, 2.2, 3.11, 3.11, 3.11, 7.26, 7.26, 7.26, 7.21, 7.21, 7.21, 7.26, 7.26, 7.26, 7.26, 7.26, 7.37, 6.94, 6.94, 6.94, 6.94, 6.94, 7.37, 7.37, 7.37, 7.37, 7.37, 7.4, 7.4, 7.26, 7.26, 7.21, 7.21, 7.21, 7.26, 7.26, 7.26, 7.26, 7.4, 7.4, 7.87, 7.87, 7.84, 6.94, 6.51, 6.6, 6.61, 6.61, 6.61, 6.61, 6.6, 6.16, 6.6, 6.61, 6.61, 6.23, 5.36, 5.36, 5.36, 5.36, 4.92, 4.47, 4.47, 4.47, 4.47, 4.02, 3.58, 3.58, 3.13, 2.68, 2.12, 1.7, 1.6, 1.2, 0.6, -0.0, -0.0, -0.45, -2.24, -1.34, -0.89, -0.0, 1.26, 2.0, 3.47, 4.92, 6.71, 8.94, 11.15, 14.73, 17.36, 16.02, 12.87, 10.19, 5.32, 0.65, -1.23, -0.0, 0.7, 2.11, 3.38, 3.38, 3.38, 7.26, 7.26, 7.21, 7.21, 7.21, 7.21, 7.21, 7.26, 7.26, 7.26, 7.21, 6.94, 6.94, 6.94, 6.94, 6.94, 6.94, 6.94, 6.94, 6.94, 7.37, 7.37, 7.37, 7.26, 7.21, 7.21, 7.21, 7.21, 7.21, 7.21, 7.4, 7.4, 7.4, 7.4, 7.4, 7.4, 7.87, 7.84, 7.4, 6.51, 6.6, 6.6, 6.61, 6.61, 6.51, 6.6, 6.16, 6.6, 6.61, 6.6, 5.34, 5.36, 5.36, 5.36, 4.92, 4.47, 4.47, 4.47, 4.47, 4.47, 4.02, 3.58, 3.58, 3.13, 2.68, 2.24, 1.79, 1.79, 1.34, 0.95, -0.0, -0.0, -0.0, -1.79, -0.89, -0.95, -0.0, 1.58, 2.6, 3.6, 4.66, 6.65, 8.46, 10.25, 13.32, 16.69, 17.0, 14.44, 11.86, 8.8, 2.8, -0.0, -0.61, 0.61, 1.61, 2.53, 2.53, 2.53, 7.26, 7.26, 7.21, 7.21, 7.21, 7.21, 7.21, 7.26, 7.26, 7.26, 7.21, 6.94, 6.94, 6.94, 6.94, 6.94, 6.94, 6.94, 6.94, 6.94, 7.37, 7.37, 7.37, 7.26, 7.21, 7.21, 7.21, 7.21, 7.21, 7.21, 7.4, 7.4, 7.4, 7.4, 7.4, 7.4, 7.87, 7.84, 7.4, 6.51, 6.6, 6.6, 6.61, 6.61, 6.51, 6.6, 6.16, 6.6, 6.61, 6.6, 5.34, 5.36, 5.36, 5.36, 4.92, 4.47, 4.47, 4.47, 4.47, 4.47, 4.02, 3.58, 3.58, 3.13, 2.68, 2.24, 1.79, 1.79, 1.34, 0.95, -0.0, -0.0, -0.0, -1.79, -0.89, -0.95, 1.26, 1.58, 2.6, 3.6, 4.66, 6.51, 7.89, 9.7, 11.84, 14.87, 16.82, 16.54, 14.92, 11.87, 6.36, 1.58, -0.0, 0.57, 1.86, 2.4, 2.4, 2.4]}, {"header": {"dx": 0.06612293990616946, "dy": 0.0552356325346848, "nx": 98, "ny": 59, "la1": 35.046912555036876, "la2": 31.78801023549047, "lo1": -121.43107172385933, "lo2": -114.95102361305473, "refTime": "2026041211", "parameterCategory": 1, "parameterNumber": 3}, "data": [-1.14, -1.14, -1.16, -1.16, -1.09, -1.09, -1.16, -1.14, -1.12, -1.65, -1.73, -1.73, -2.35, -1.49, 0.88, 3.22, 3.9, 2.98, 2.84, 2.73, 2.4, 3.79, 4.19, 3.16, 3.16, 3.16, 2.15, 2.86, 3.07, 3.74, 3.82, 3.97, 3.13, 0.89, -0.0, 0.0, 0.0, 0.0, 0.0, 1.2, 3.13, 3.51, 2.97, 3.35, 3.49, 3.0, 3.09, 2.99, 2.99, 3.6, 3.91, 4.56, 4.56, 5.3, 5.59, 5.21, 5.49, 5.38, 4.83, 4.83, 3.8, 3.11, 2.84, 3.2, 3.83, 4.46, 4.65, 3.91, 3.8, 3.06, 3.06, 3.06, 2.35, 1.49, 0.78, 1.63, 0.61, 0.0, -0.0, -0.65, -1.16, -1.4, -2.15, -2.41, -3.16, -3.84, -3.2, -2.6, -3.13, -3.45, -4.74, -5.37, -5.3, -5.49, -3.64, -1.86, -1.34, -0.89, -1.14, -1.14, -1.16, -1.16, -1.09, -1.09, -1.16, -1.14, -1.12, -1.11, -1.73, -1.6, -1.58, -0.79, 1.3, 3.35, 2.97, 2.53, 3.72, 3.48, 5.01, 5.37, 5.37, 3.58, 2.84, 1.88, 1.9, 2.23, 3.04, 4.41, 5.77, 6.21, 4.41, 1.79, -0.0, 0.0, 0.0, 0.0, 0.0, 1.26, 3.51, 4.38, 4.4, 3.07, 2.29, 2.26, 2.31, 2.31, 2.4, 2.51, 3.11, 3.64, 3.9, 4.22, 4.29, 4.56, 4.46, 4.6, 4.5, 3.88, 3.27, 3.07, 3.2, 4.15, 4.46, 4.43, 3.79, 3.09, 3.09, 2.99, 3.15, 2.18, 2.26, 1.45, 0.76, 0.76, 1.35, 0.0, -0.0, -0.65, -1.16, -1.4, -2.15, -2.41, -3.16, -3.84, -3.2, -2.6, -3.13, -3.45, -4.74, -5.37, -5.3, -5.49, -3.64, -1.86, -1.34, -0.89, -1.14, -1.14, -1.14, -1.71, -1.71, -1.73, -1.16, -1.14, -1.12, -1.65, -1.73, -1.65, -1.52, -0.79, 0.79, 2.6, 2.54, 2.6, 4.0, 4.8, 4.8, 5.2, 5.01, 5.59, 4.74, 3.79, 2.21, 1.86, 2.24, 4.02, 6.26, 8.01, 8.36, 3.95, 1.34, 0.89, 1.26, 0.0, 0.0, 1.86, 3.97, 3.82, 3.07, 2.29, 1.52, 1.45, 1.55, 0.74, 1.41, 1.55, 2.3, 2.98, 2.88, 3.33, 3.32, 3.0, 3.69, 3.8, 3.7, 3.32, 3.11, 3.45, 4.24, 4.8, 4.46, 3.64, 4.03, 3.91, 4.71, 4.6, 4.83, 4.6, 3.8, 2.26, 0.7, 0.7, 0.67, 0.57, -0.0, -0.7, -0.79, -1.33, -1.6, -2.15, -2.79, -2.79, -2.84, -3.04, -3.51, -5.09, -6.06, -6.01, -5.69, -3.07, -0.6, 0.0, 0.0, -0.6, -1.14, -1.14, -1.14, -1.71, -1.71, -1.73, -1.61, -1.69, -1.67, -1.65, -1.73, -1.73, -1.58, -0.76, 0.81, 2.6, 2.68, 2.68, 4.02, 4.38, 4.15, 3.82, 3.72, 3.07, 4.74, 5.37, 3.79, 1.9, 1.79, 2.8, 4.66, 6.66, 8.05, 8.67, 5.37, 2.98, 2.53, 1.4, 0.65, 2.4, 4.24, 3.83, 3.07, 2.11, 0.76, 0.0, 0.0, 0.0, 0.79, 0.7, 1.33, 1.41, 2.4, 3.11, 3.11, 3.0, 3.2, 2.99, 3.15, 2.26, 3.16, 3.97, 4.66, 4.46, 4.43, 4.95, 5.59, 6.95, 8.24, 8.53, 8.53, 7.82, 6.71, 4.96, 2.12, 0.0, -0.59, 0.0, -0.63, -1.41, -1.35, -1.27, -1.16, -1.33, -1.41, -1.33, -1.9, -3.07, -4.24, -6.08, -5.3, -3.72, -1.9, 0.0, 1.34, 1.2, 0.0, -0.71, -1.14, -1.14, -1.14, -1.16, -1.16, -1.73, -1.61, -1.69, -1.67, -1.65, -1.73, -1.65, -1.49, -0.84, 0.0, 2.98, 3.13, 2.68, 3.13, 3.58, 4.77, 3.72, 2.84, 2.84, 2.41, 3.22, 5.06, 3.93, 2.12, 2.4, 3.16, 3.22, 4.24, 5.75, 5.93, 4.11, 4.11, 1.98, 0.61, 2.6, 4.41, 4.84, 4.43, 3.72, 2.2, 1.33, 0.65, 0.0, 0.54, 0.76, 1.4, 1.66, 2.2, 2.4, 3.11, 3.2, 2.9, 3.09, 2.31, 2.29, 2.8, 4.47, 4.66, 4.84, 6.08, 7.69, 8.32, 9.3, 10.29, 10.9, 10.18, 9.1, 8.44, 7.73, 4.83, 0.61, -0.89, -0.0, -0.0, -1.94, -1.98, -1.35, -1.33, -0.7, -1.35, -1.84, -2.4, -3.51, -5.43, -6.08, -3.48, -0.99, 0.45, 0.89, 0.89, 0.6, 0.0, -0.65, -1.14, -1.14, -1.14, -1.16, -1.16, -1.09, -1.16, -1.69, -1.67, -1.65, -1.73, -1.75, -1.49, -0.89, 0.0, 2.6, 3.13, 3.13, 3.04, 3.47, 3.58, 4.15, 4.09, 3.79, 3.48, 3.48, 4.11, 5.24, 5.01, 4.77, 3.04, 1.49, 1.58, 2.68, 2.41, 2.98, 3.11, 2.35, 0.76, 1.79, 3.58, 5.81, 6.08, 5.72, 5.06, 4.01, 2.41, 1.2, 0.71, 1.49, 2.15, 2.3, 2.2, 2.4, 2.47, 2.26, 2.26, 1.55, 1.55, 2.3, 3.07, 4.02, 4.66, 6.4, 8.0, 9.84, 9.9, 9.3, 9.3, 9.62, 8.46, 7.73, 8.01, 7.63, 6.33, 3.43, -0.0, -0.0, -0.0, -0.61, -1.6, -2.29, -1.27, -1.27, -2.07, -3.07, -3.58, -4.4, -5.09, -4.09, -1.86, 0.0, 0.45, 0.63, 0.0, 0.0, -1.16, -1.4, -1.14, -1.14, -1.14, -1.16, -1.16, -1.16, -1.16, -1.14, -1.75, -1.65, -1.11, -1.18, -0.76, -0.84, 0.0, 1.9, 2.24, 2.24, 2.54, 2.23, 1.9, 2.0, 2.0, 1.98, 2.48, 2.48, 2.73, 4.8, 5.2, 5.2, 4.4, 2.68, 2.24, 2.4, 2.53, 2.84, 3.35, 3.6, 2.0, 2.24, 2.12, 4.77, 6.13, 7.07, 6.87, 5.37, 5.06, 4.46, 3.16, 4.43, 5.24, 2.79, 2.2, 1.47, 0.82, 0.78, 0.0, 0.0, 0.0, 1.58, 2.68, 3.58, 4.24, 6.54, 7.89, 8.67, 8.68, 7.02, 6.01, 5.64, 4.4, 3.7, 3.51, 3.78, 3.69, 3.88, 1.26, -0.0, -0.0, -0.0, -1.27, -2.4, -2.79, -2.41, -2.86, -3.53, -4.41, -4.4, -4.09, -2.6, -0.89, -0.0, -0.0, -0.0, 0.0, -1.24, -1.84, -1.88, -1.14, -1.14, -1.14, -1.16, -1.16, -1.16, -1.16, -1.14, -1.18, -1.11, -1.11, -1.12, -0.8, -0.84, 0.0, 1.0, 1.79, 2.24, 2.24, 2.0, 1.0, -0.0, -0.89, 0.0, 0.0, 0.0, 1.9, 3.39, 4.77, 4.65, 4.8, 4.77, 4.24, 3.82, 2.53, 2.21, 1.6, 2.29, 3.0, 2.21, 2.12, 3.13, 3.72, 4.74, 4.75, 6.01, 7.07, 7.07, 8.24, 8.15, 2.84, 2.15, 1.41, 0.76, 0.0, -0.76, -0.76, -0.76, 0.0, 1.34, 2.24, 2.6, 3.07, 5.86, 6.0, 6.08, 5.94, 3.69, 1.52, 0.71, 0.0, 0.0, 0.0, 0.0, 0.0, 0.67, 1.52, 1.26, 0.57, -0.0, -1.24, -2.79, -3.16, -3.07, -3.32, -3.13, -3.07, -2.8, -2.6, -1.2, -0.0, 0.6, 0.57, -0.0, -1.2, -1.88, -2.23, -2.21, -1.14, -1.14, -1.14, -1.71, -1.71, -1.71, -1.71, -1.14, -1.18, -1.11, -1.11, -1.78, -1.14, -0.84, 0.0, 1.13, 2.24, 2.24, 2.24, 1.34, 1.34, 0.0, -0.0, -0.89, -0.89, 0.0, 0.0, 2.68, 3.82, 4.09, 3.82, 3.58, 3.13, 2.4, 2.6, 1.74, 0.0, 0.0, 0.76, 1.74, 1.58, 3.2, 2.84, 2.4, 3.45, 6.44, 9.21, 9.8, 9.65, 8.32, 6.87, 3.07, 2.07, 0.7, 0.0, -1.41, -2.3, -1.49, -0.45, 0.89, 3.04, 5.59, 4.24, 5.34, 5.05, 4.74, 4.46, 2.18, -0.78, -2.26, -2.35, -1.98, -2.26, -2.06, -1.93, -0.76, 0.0, 0.59, 0.54, 0.0, 0.0, -1.88, -2.53, -2.15, -2.17, -1.79, -1.2, 0.0, 0.0, 0.0, 0.45, 1.79, 0.57, -1.26, -2.0, -2.23, -2.53, -1.58, -1.14, -1.14, -1.81, -1.71, -1.71, -1.71, -1.71, -1.69, -1.75, -1.65, -1.73, -1.75, -1.75, -1.65, -0.81, 0.82, 2.21, 2.24, 1.34, 1.58, 1.4, 2.21, 2.24, 1.79, 0.0, 1.58, 2.68, 3.13, 3.39, 4.24, 2.68, -0.0, -0.0, 0.0, 0.0, 1.6, 0.0, 0.8, 2.53, 3.72, 2.6, 2.53, 2.68, 2.53, 4.54, 7.42, 7.63, 7.03, 6.39, 7.02, 8.06, 8.24, 7.03, 5.05, 2.53, 1.2, 0.6, -1.79, -1.34, 1.79, 7.89, 10.02, 10.04, 7.47, 7.03, 5.37, 5.21, 3.4, 0.0, -3.79, -5.09, -4.74, -3.79, -3.0, -2.11, -0.65, 0.0, 0.0, 0.0, 0.54, 0.65, 1.16, -0.45, -0.63, 0.0, 0.71, 1.0, 0.54, 0.57, 0.0, 0.0, 1.2, 0.45, -1.34, -2.4, -2.84, -2.21, -0.95, -1.14, -1.69, -1.71, -1.71, -1.71, -1.71, -1.71, -1.69, -1.67, -1.73, -1.73, -1.73, -2.28, -2.28, -1.6, 0.0, 1.8, 1.26, 0.71, 0.65, 0.99, 1.98, 2.6, 1.9, 1.4, 0.95, 2.21, 2.8, 2.8, 2.8, 1.79, 0.0, -0.0, -0.0, 0.0, 1.4, 2.84, 2.8, 2.98, 3.22, 2.98, 2.53, 1.8, 3.48, 6.14, 6.21, 4.4, 3.84, 3.84, 6.0, 10.75, 12.62, 13.05, 13.21, 12.3, 12.3, 11.66, 1.7, -0.6, 4.85, 12.04, 12.74, 11.18, 9.6, 10.15, 10.8, 10.48, 9.27, 5.05, 0.57, -1.86, -3.14, -4.46, -3.48, -2.15, -0.6, -0.0, 0.0, 0.0, 0.0, 0.54, 1.84, 2.44, 1.33, 1.41, 2.0, 2.0, 0.7, 0.0, 0.0, 0.0, 0.0, 0.0, -0.63, -2.23, -2.5, -1.86, -0.89, -1.14, -1.69, -1.71, -1.71, -1.71, -1.71, -1.71, -1.69, -1.67, -1.73, -1.73, -2.28, -2.28, -2.28, -2.25, -1.12, 0.59, 1.2, 0.71, 0.53, 0.61, 0.61, 0.65, 0.0, 0.0, 0.0, 1.27, 1.16, 0.85, 1.58, 0.0, 0.0, 0.0, 0.0, 0.0, 0.63, 2.6, 2.6, 2.6, 3.22, 3.22, 2.84, 2.6, 4.24, 5.81, 3.95, 4.77, 5.7, 6.17, 8.05, 11.15, 12.94, 14.29, 15.63, 15.18, 15.03, 15.61, 11.53, 3.45, 8.01, 12.96, 12.58, 11.18, 10.25, 12.58, 15.13, 16.33, 15.41, 14.49, 11.62, 7.54, 3.48, 0.0, -1.49, -1.7, -0.45, 0.0, 0.0, 0.0, -0.63, 0.0, 1.2, 2.2, 2.29, 2.6, 2.6, 2.04, 1.27, 0.61, 0.0, 0.0, -0.0, 0.0, 0.0, -1.6, -2.12, -1.79, -1.2, -1.69, -1.81, -1.71, -1.71, -1.71, -1.71, -1.71, -2.37, -2.19, -2.17, -2.28, -2.28, -2.28, -2.28, -2.25, -1.73, 0.0, 1.13, 0.65, 0.0, 0.0, 0.0, 0.0, 0.0, 0.0, 0.0, 0.59, 0.59, 0.63, 0.59, 0.0, 0.0, 0.8, 1.26, 1.26, 0.95, 1.58, 2.4, 2.54, 3.2, 3.6, 4.15, 3.47, 3.13, 4.47, 5.81, 6.71, 7.15, 8.05, 8.49, 8.94, 9.83, 10.26, 10.26, 10.73, 10.22, 10.7, 11.93, 8.6, 9.36, 12.96, 11.66, 9.33, 10.62, 13.39, 14.67, 15.5, 16.25, 15.13, 14.83, 14.11, 11.9, 7.64, 2.53, 0.0, -0.63, 0.0, 0.8, 0.57, -0.32, -1.34, 0.0, 0.0, 0.0, 2.8, 3.2, 2.26, 1.41, 0.66, 0.61, 0.0, -0.0, -0.0, -0.63, -1.7, -2.0, -1.86, -0.57, -1.69, -1.71, -1.71, -1.71, -1.71, -1.71, -2.23, -2.37, -2.33, -2.3, -2.28, -2.28, -2.28, -1.73, -2.39, -1.73, 0.0, 0.55, 0.53, 0.0, 0.0, 0.0, 0.0, 0.0, 0.0, 0.0, 0.0, 0.53, 0.59, 0.0, 0.0, 0.0, 0.0, 1.26, 1.26, 1.26, 1.6, 2.54, 2.54, 2.97, 3.04, 3.47, 4.02, 4.92, 4.92, 5.2, 4.85, 5.26, 5.7, 6.26, 6.71, 6.61, 5.7, 4.77, 3.82, 3.58, 4.77, 6.69, 9.17, 8.8, 11.18, 10.47, 10.68, 12.07, 12.07, 12.05, 12.43, 11.86, 11.76, 9.27, 10.28, 9.17, 7.73, 5.38, 1.27, 0.0, 1.88, 4.43, 4.56, 1.6, 0.0, -0.6, -0.61, -1.47, 0.7, 1.45, 1.52, 1.49, 1.3, 1.23, 0.65, 0.0, -0.0, -0.57, -1.9, -1.9, -1.24, -0.0, -1.81, -1.71, -1.71, -1.71, -1.71, -1.71, -1.71, -2.37, -2.33, -2.3, -2.28, -2.28, -2.28, -1.73, -2.28, -2.28, -1.14, 0.0, 0.0, 0.0, 0.0, 0.0, 0.0, 0.0, 0.0, 0.0, 0.0, 0.0, 0.0, 0.0, 0.0, 0.0, 0.0, 0.0, 1.9, 1.9, 2.8, 2.4, 2.8, 2.0, 2.54, 3.58, 3.58, 3.58, 3.58, 3.58, 4.24, 4.4, 4.8, 4.24, 4.92, 4.47, 3.39, 1.58, 0.0, 0.0, 2.24, 3.64, 7.27, 9.54, 8.94, 8.87, 9.39, 9.83, 9.39, 9.77, 9.77, 8.6, 7.2, 6.52, 6.01, 5.18, 3.02, 0.69, 0.63, 3.79, 7.06, 7.9, 7.36, 5.95, 3.09, 0.66, 0.0, -1.6, -3.45, -1.41, 0.0, 0.76, 1.32, 1.52, 1.41, 0.0, -0.8, -1.4, -1.49, -0.57, -0.0, -0.0, -1.71, -1.71, -1.71, -1.71, -1.71, -1.71, -1.71, -2.37, -2.33, -1.75, -1.65, -1.73, -1.73, -1.73, -1.73, -2.28, -1.67, 0.0, 0.0, 0.0, 0.0, 0.0, 0.0, 0.0, 0.0, 0.0, 0.0, 0.0, 0.0, 0.0, 0.0, 0.0, 0.0, 0.0, 0.0, 1.0, 1.9, 1.58, 1.9, 1.9, 2.0, 2.68, 3.13, 2.68, 3.13, 3.2, 3.82, 3.72, 2.84, 2.84, 3.2, 3.13, 2.68, 1.34, 0.0, 0.0, 2.21, 3.48, 6.8, 7.21, 6.21, 7.15, 7.15, 7.06, 6.26, 7.15, 6.71, 6.79, 6.8, 5.69, 3.2, 0.7, 0.0, -1.45, 1.33, 7.28, 10.29, 10.12, 8.56, 7.54, 6.77, 5.3, 3.7, 0.79, -2.12, -4.02, -2.07, -0.73, 0.0, 0.0, 0.67, -0.89, -0.8, -0.95, -1.34, -0.63, -0.0, -0.0, -1.71, -1.71, -1.71, -1.71, -1.71, -1.71, -1.71, -2.37, -2.21, -1.67, -1.75, -1.73, -1.73, -1.73, -1.73, -2.39, -1.65, -0.57, 0.0, 0.0, -0.59, 0.0, 0.0, 0.0, 0.0, 0.0, 0.0, 0.0, 0.0, 0.0, 0.0, 0.0, 0.0, 0.0, 0.0, 0.76, 0.99, 1.4, 1.9, 1.9, 3.13, 2.24, 3.13, 2.24, 3.13, 3.2, 3.2, 2.8, 1.9, 1.9, -0.0, 1.79, 1.79, 1.34, 1.79, 1.9, 3.6, 4.24, 4.09, 4.8, 4.8, 4.92, 4.77, 4.09, 4.8, 5.09, 5.81, 5.36, 6.13, 4.66, 1.02, -2.15, -2.17, 0.0, 4.66, 9.65, 10.86, 10.89, 9.17, 8.06, 7.69, 6.9, 5.29, 4.05, 0.0, -1.86, -3.07, -1.2, -0.65, 0.0, 0.0, 0.0, -0.4, -1.2, -1.26, -0.63, 0.0, 0.0, -1.71, -1.71, -1.71, -1.71, -1.71, -1.71, -1.71, -1.81, -2.21, -1.78, -1.75, -1.65, -2.28, -1.73, -1.73, -1.81, -1.73, -0.59, 0.0, 0.0, -0.59, -1.23, -0.61, 0.0, 0.0, 0.0, 0.0, 0.0, 0.0, 0.0, 0.0, 0.0, 0.0, 0.0, 0.0, 0.0, 0.0, 0.0, 1.2, 1.58, 1.34, 1.79, 2.24, 2.24, 3.13, 3.13, 2.68, 2.24, 1.79, 1.79, 0.0, 0.0, 0.0, 1.79, 1.79, 2.24, 2.4, 3.2, 2.53, 2.84, 3.72, 3.82, 3.13, 3.82, 4.65, 4.19, 3.83, 3.58, 2.84, 1.2, 0.0, 0.0, 0.0, 2.8, 6.06, 6.64, 7.12, 7.0, 7.08, 6.17, 5.38, 4.71, 3.87, 1.36, 0.0, -0.8, -0.6, -0.89, -1.2, -0.71, 0.7, 1.55, 0.59, -0.53, -1.0, -0.54, 0.0, 0.0, -1.71, -1.71, -1.71, -1.71, -1.71, -1.71, -1.71, -1.71, -2.21, -1.78, -1.75, -1.65, -2.28, -1.73, -1.73, -1.52, -1.75, -0.58, 0.0, -0.61, -0.59, -1.76, -1.76, -0.79, 0.0, 0.0, 0.0, 0.0, 0.0, 0.0, 0.0, 0.0, 0.0, 0.0, 0.0, 0.0, 0.0, 0.0, 0.0, 0.0, 0.0, 0.0, 0.0, 1.79, 2.24, 2.24, 2.24, 1.79, 1.79, 1.79, 2.24, 2.24, 2.24, 2.24, 2.24, 2.24, 2.4, 2.8, 2.53, 2.53, 2.8, 2.4, 2.68, 2.12, 3.22, 2.84, 2.23, 2.68, 0.0, 0.0, 0.0, 2.97, 3.83, 3.04, 1.5, 0.0, -0.73, 0.0, 0.79, 1.53, 1.51, 0.76, 0.0, 0.0, 0.0, -0.57, 0.0, 1.2, 0.0, 0.0, 0.57, 1.13, 0.73, 0.0, -0.61, -0.53, 0.0, 0.0, -1.71, -1.71, -1.73, -1.73, -1.84, -1.71, -1.71, -1.71, -1.81, -2.21, -1.67, -1.75, -2.28, -1.73, -1.73, -1.73, -1.73, -0.56, 0.0, 0.0, -0.76, -1.11, -1.76, -0.85, -0.79, 0.0, 0.0, 0.0, 0.0, 0.0, 0.0, 0.0, 0.0, 0.0, 0.0, 0.0, 0.0, 0.0, 0.0, 0.0, 0.0, 0.0, 0.0, 0.0, 0.89, 1.79, 1.79, 1.79, 1.79, 1.79, 2.68, 2.68, 3.13, 3.13, 1.79, 1.34, 2.8, 1.26, 1.26, 1.4, 1.58, 1.79, 2.68, 3.82, 2.8, 3.22, 2.98, 2.68, 0.98, 0.0, 0.82, 1.51, 2.32, 0.0, -3.95, -7.13, -8.29, -7.79, -3.23, -1.55, -0.76, 0.0, 0.0, 0.0, 0.0, 0.0, 0.8, 2.4, 1.58, 1.0, 0.0, 0.0, 0.0, 0.0, -0.61, 0.0, 0.0, 0.0, -1.71, -1.73, -1.73, -1.73, -1.84, -1.71, -1.71, -1.71, -1.81, -2.21, -2.33, -1.75, -1.65, -1.73, -1.73, -1.73, -1.1, -1.15, 0.0, 0.0, 0.0, -1.13, -1.58, -2.22, -1.11, -0.57, 0.0, 0.0, 0.0, 0.0, 0.0, 0.0, 0.0, 0.0, 0.0, 0.0, 0.0, 0.0, 0.0, 0.0, 0.0, 0.0, 0.0, 0.0, 0.95, 1.79, 1.79, 0.0, 1.34, 1.58, 2.4, 2.68, 2.68, 3.13, 3.13, 1.34, 1.86, 1.58, 1.4, 1.79, 2.68, 3.58, 4.02, 4.24, 1.86, 2.21, 2.6, 3.13, 3.48, 2.47, 2.31, 3.96, 4.66, 0.76, -4.58, -9.85, -12.05, -10.9, -8.53, -5.51, -2.99, -0.75, 0.0, 0.68, 0.77, 0.0, 1.2, 1.88, 1.23, 1.27, -0.59, -1.41, -1.52, -0.66, 0.0, 0.54, 0.61, 0.61, -2.23, -2.26, -2.26, -1.73, -1.84, -1.71, -1.71, -1.71, -1.81, -1.69, -1.78, -1.67, -1.75, -1.65, -1.73, -1.16, -1.16, -1.15, -0.58, 0.0, 0.0, -0.55, -1.76, -1.76, -1.11, -0.57, 0.0, 0.0, 0.0, 0.0, 0.0, 0.0, 0.0, 0.61, 0.61, 0.0, 0.0, 0.0, 0.0, 0.0, 0.0, 0.0, 0.0, 0.0, 0.54, 0.6, 0.0, 0.0, 0.0, 2.24, 2.4, 2.68, 2.68, 2.68, 3.13, 3.58, 2.6, 2.4, 2.4, 1.58, 1.86, 3.04, 3.13, 2.68, 2.6, 2.8, 2.23, 3.58, 4.66, 6.13, 7.21, 10.23, 11.49, 7.18, -6.26, -10.1, -12.13, -11.85, -11.3, -8.86, -6.05, -2.89, 0.0, 0.79, 1.5, 1.49, 1.27, 0.59, 0.0, 0.0, -1.36, -1.94, -0.63, 0.0, 1.2, 1.4, 0.59, 0.59, -2.4, -2.4, -2.26, -2.26, -1.84, -1.71, -1.71, -1.71, -1.81, -1.69, -1.69, -1.78, -1.67, -1.75, -1.65, -1.16, -1.16, -1.1, -0.58, 0.0, 0.0, -0.56, -1.19, -1.11, -1.11, -0.57, 0.0, 0.0, 0.0, 0.0, 0.0, 0.0, 0.0, 0.0, 0.0, 0.0, 0.0, 0.0, 0.0, 0.0, 0.0, 0.0, 0.0, 0.59, 0.61, 0.65, 0.0, 0.0, 0.0, 1.79, 2.24, 2.68, 2.68, 2.68, 3.13, 4.02, 2.6, 4.15, 1.6, 1.2, 1.9, 2.8, 3.58, 3.13, 3.04, 3.47, 2.54, 2.54, 4.38, 5.81, 7.5, 9.21, 6.2, 2.32, -3.72, -6.22, -8.67, -10.38, -11.3, -10.79, -8.49, -4.46, -2.18, 0.0, 0.0, 1.47, 0.76, 0.0, -0.71, 0.0, -0.67, 0.0, 0.0, 1.16, 1.33, 1.27, 0.67, 0.67, -2.4, -2.4, -2.26, -2.26, -2.4, -2.23, -2.23, -2.23, -1.81, -1.69, -1.69, -1.78, -1.67, -1.67, -1.75, -1.11, -1.16, -0.59, -0.55, -0.58, 0.0, 0.0, -0.55, -1.19, -0.59, -0.59, 0.0, 0.0, 0.0, 0.0, 0.0, 0.0, 0.0, 0.0, 0.0, 0.0, 0.0, 0.0, 0.0, 0.0, 0.0, 0.0, 0.0, 0.57, 1.11, 1.13, 0.0, 0.0, 0.0, 1.58, 2.4, 2.68, 2.68, 3.13, 3.58, 3.58, 2.24, 4.85, 4.8, 2.24, 1.86, 2.23, 2.6, 2.6, 2.6, 4.02, 3.58, 4.02, 3.04, 2.97, 2.24, 1.14, 1.51, 4.01, 3.25, -2.4, -6.71, -8.67, -10.28, -10.8, -9.68, -6.9, -5.0, -2.75, -1.52, -0.77, 0.0, 0.0, 0.0, 2.98, 1.41, 1.84, 1.33, 0.66, 0.0, 0.0, 0.0, 0.0, -2.4, -2.4, -2.26, -2.26, -2.26, -2.4, -2.23, -2.23, -2.37, -1.69, -1.69, -1.78, -1.78, -1.67, -1.67, -1.18, -1.18, -1.11, -0.59, -0.55, 0.0, 0.0, 0.0, 0.0, -0.54, -0.59, 0.0, 0.0, 0.0, 0.0, 0.0, 0.0, 0.0, 0.0, 0.0, 0.0, 0.0, 0.0, 0.0, 0.0, 0.0, 0.0, 0.0, 0.61, 1.08, 1.23, 1.23, 0.55, 0.0, 1.11, 1.84, 3.2, 2.8, 3.13, 3.13, 3.58, 4.02, 3.58, 4.77, 4.8, 2.12, 2.12, 1.86, 2.6, 3.13, 3.58, 3.58, 3.47, 3.04, 0.0, 0.0, 0.0, 2.2, 6.14, 7.04, 4.55, -0.59, -4.24, -8.67, -9.11, -10.08, -8.55, -6.59, -4.94, -2.9, -1.52, -0.78, 0.0, 1.13, 3.48, 4.83, 4.37, 2.06, 0.0, -0.7, -0.59, 0.0, 0.0, -2.23, -2.23, -2.4, -2.26, -2.4, -2.4, -2.23, -2.23, -2.23, -1.81, -1.69, -1.69, -1.78, -1.67, -1.67, -1.12, -1.12, -1.18, -0.59, -0.56, 0.0, 0.0, 0.0, 0.0, 0.0, 0.0, 0.0, 0.0, 0.0, 0.0, 0.0, 0.0, 0.0, 0.0, 0.0, 0.0, 0.0, 0.0, 0.0, 0.0, 0.0, 0.0, 0.59, 0.59, 0.54, 1.19, 1.08, 1.07, 0.59, 1.16, 1.76, 2.23, 2.84, 3.82, 3.82, 4.02, 4.02, 3.58, 3.58, 4.09, 4.8, 2.6, 2.24, 1.79, 3.13, 3.13, 3.58, 3.9, 3.16, 0.81, 0.0, 0.0, 3.16, 5.45, 7.91, 9.32, 6.32, -1.27, -4.43, -6.22, -8.91, -8.84, -7.56, -4.75, -2.48, -1.41, -0.7, 0.0, 1.13, 1.84, 1.55, 4.23, 2.71, 0.69, 0.0, 0.0, 0.0, 0.0, -2.23, -2.23, -2.23, -2.4, -2.4, -2.23, -2.23, -2.23, -2.23, -2.37, -1.69, -1.69, -1.78, -1.78, -1.67, -1.12, -1.12, -1.12, -1.12, -0.59, -0.56, 0.0, 0.0, 0.0, 0.0, 0.0, 0.0, 0.0, 0.0, 0.0, 0.0, 0.0, 0.0, -0.55, -0.56, -0.57, -0.59, 0.0, 0.0, 0.0, 0.0, 0.0, 0.0, 0.59, 0.59, 0.61, 0.61, 1.07, 1.16, 1.14, 1.19, 1.76, 2.23, 3.07, 3.2, 3.47, 4.02, 3.58, 2.24, 3.47, 5.64, 5.2, 2.98, 1.6, 3.13, 2.68, 2.68, 2.98, 3.07, 2.47, 1.73, 1.58, 1.62, 3.82, 5.38, 7.11, 8.62, 3.37, -2.68, -3.58, -4.02, -7.12, -6.58, -4.73, -3.35, -2.48, -1.47, -0.63, 0.0, 0.61, 0.0, 0.0, 2.34, 2.21, 0.72, 0.51, 0.61, 0.61, -2.23, -2.23, -2.23, -2.23, -2.23, -2.23, -2.23, -2.23, -2.23, -2.23, -1.81, -1.69, -1.69, -1.78, -1.78, -1.12, -1.12, -1.12, -1.12, -1.12, -0.56, -0.56, 0.0, 0.0, 0.0, 0.0, 0.0, 0.0, 0.0, 0.0, 0.0, 0.0, 0.0, -0.55, -0.55, -0.56, -0.57, 0.0, 0.0, 0.0, 0.0, 0.0, 0.0, 0.0, 0.0, 0.61, 0.55, 0.61, 0.59, 0.58, 0.59, 1.08, 1.8, 2.84, 3.6, 3.6, 3.82, 3.2, 3.13, 4.02, 4.15, 3.48, 2.68, 2.6, 2.68, 3.58, 2.0, 0.0, 0.0, 0.88, 0.79, 0.0, 0.0, 0.0, 1.56, 2.31, 1.53, 3.83, 0.66, -1.79, -2.17, -6.3, -6.79, -4.87, -4.73, -4.46, -3.48, -1.33, 0.0, 0.0, 0.0, 0.0, 0.75, 2.06, 1.95, 1.3, 1.27, 1.27, -2.23, -2.23, -2.23, -2.23, -2.23, -2.23, -2.23, -2.23, -2.23, -2.23, -2.37, -1.81, -1.69, -1.69, -1.78, -1.2, -1.12, -1.12, -1.12, -1.12, -1.12, -0.59, -0.56, 0.0, 0.0, 0.0, 0.0, 0.0, 0.0, 0.0, 0.0, 0.0, 0.0, 0.0, -0.55, -0.55, 0.0, 0.0, 0.0, 0.0, 0.0, -0.59, 0.0, 0.0, 0.81, 1.19, 0.61, 0.61, 0.61, 0.59, 0.59, 0.61, 1.23, 2.23, 3.72, 3.6, 3.72, 4.24, 3.58, 3.13, 2.84, 1.55, 1.6, 3.47, 4.02, 4.85, 2.23, 0.0, -1.2, -1.66, 0.0, 0.0, 0.0, -0.79, -2.39, -2.37, -2.22, 0.0, 3.17, 0.0, -1.16, -5.47, -5.47, -4.6, -3.07, -2.68, -2.12, -1.49, -1.0, -0.53, 0.0, 0.0, 0.67, 1.4, 2.69, 2.82, 2.2, 2.2, -2.37, -2.37, -2.23, -2.23, -2.23, -2.23, -2.23, -2.23, -2.23, -2.23, -2.23, -1.81, -1.69, -1.69, -1.69, -1.78, -1.2, -1.2, -1.12, -1.12, -1.12, -1.12, -1.12, -0.59, -0.56, -0.56, -0.59, 0.0, 0.0, 0.0, 0.0, 0.0, 0.0, 0.0, 0.0, 0.0, 0.0, 0.0, 0.0, 0.0, 0.0, 0.0, 0.0, 1.16, 1.67, 1.72, 0.76, 0.55, 0.61, 0.54, 0.59, 0.54, 1.23, 2.48, 3.16, 3.43, 3.72, 3.72, 3.6, 1.7, 1.66, 2.4, 3.22, 4.02, 5.36, 5.59, 6.07, 3.49, -1.9, -3.22, 0.0, 3.0, 3.88, 1.47, -2.28, -5.3, -5.3, -3.02, 0.0, 0.78, -0.76, -4.3, -4.69, -2.96, -1.88, -1.2, -0.99, -0.57, 0.0, 0.0, 1.33, 2.4, 3.4, 2.18, 2.69, 3.44, 2.9, 2.9, -2.37, -2.37, -2.23, -2.23, -2.23, -2.23, -2.4, -2.4, -2.4, -2.23, -2.23, -2.23, -1.81, -1.69, -1.69, -1.69, -1.69, -1.14, -1.2, -1.12, -1.12, -1.12, -1.12, -1.12, -0.59, -0.56, -0.56, -0.56, 0.0, 0.0, 0.0, 0.0, 0.0, 0.0, 0.0, 0.0, 0.0, 0.0, 0.0, 0.0, 0.0, 0.61, 1.12, 1.8, 2.32, 1.63, 1.52, 1.14, 1.14, 1.14, 1.16, 1.16, 1.7, 2.22, 3.15, 3.48, 3.78, 3.72, 3.35, 2.84, 2.68, 4.19, 4.8, 4.92, 4.02, 4.38, 4.84, 6.01, 3.76, 0.0, 2.54, 5.21, 5.38, 6.0, 3.04, -3.19, -6.88, -6.64, -5.28, -2.3, -1.41, -2.15, -3.0, -1.72, 0.0, 0.0, 0.6, 0.67, 1.4, 2.9, 3.69, 4.8, 4.96, 4.6, 4.12, 4.23, 4.05, 4.05, -2.89, -2.89, -2.73, -2.73, -2.23, -2.4, -2.4, -2.26, -2.26, -2.4, -2.23, -2.23, -1.71, -1.81, -1.69, -1.69, -1.69, -1.69, -1.14, -1.14, -1.2, -1.12, -1.12, -1.12, -1.12, -0.59, -0.56, -0.59, 0.0, 0.0, 0.0, 0.0, 0.53, 0.0, 0.0, 0.0, 0.0, 0.0, 0.0, 0.0, 0.0, 0.59, 1.63, 1.76, 1.76, 1.76, 1.73, 1.73, 1.18, 1.2, 1.23, 1.14, 1.16, 1.7, 1.73, 2.86, 3.48, 3.78, 3.43, 3.43, 3.58, 2.8, 3.74, 3.04, 2.24, 2.24, 3.2, 4.74, 6.01, 5.06, 4.22, 3.48, 3.68, 4.48, 6.26, 2.25, -3.49, -6.26, -7.07, -5.68, -3.47, -1.36, -0.67, 0.0, 0.0, 1.2, 1.77, 2.35, 2.37, 3.53, 4.0, 4.28, 4.2, 4.31, 4.4, 4.15, 4.32, 4.32, -2.89, -2.89, -2.89, -2.73, -2.92, -2.92, -2.26, -2.26, -2.26, -2.26, -2.4, -2.23, -2.23, -1.71, -1.71, -1.69, -1.69, -1.69, -1.14, -1.14, -1.14, -1.2, -1.12, -1.12, -1.12, -0.56, -0.59, -0.56, -0.56, 0.0, 0.0, 0.0, 0.0, 0.0, 0.0, 0.0, 0.0, 0.0, 0.0, 0.0, 0.0, 0.59, 1.1, 1.76, 1.76, 1.76, 1.1, 1.18, 1.16, 1.71, 1.63, 1.23, 1.14, 1.16, 1.7, 2.84, 3.22, 3.48, 3.78, 3.78, 4.0, 2.23, 4.09, 2.12, 2.17, 2.54, 3.2, 3.58, 4.74, 4.75, 4.29, 1.83, 0.0, 0.0, 2.32, 4.74, 0.0, -4.46, -5.78, -6.23, -4.17, -2.02, 0.0, 0.7, 0.59, 0.58, 0.58, 1.2, 2.28, 3.15, 3.55, 3.32, 2.9, 2.75, 2.76, 4.01, 3.98, 3.98, -2.89, -2.89, -2.89, -3.37, -3.4, -3.4, -2.96, -2.75, -2.26, -2.26, -2.26, -2.4, -2.23, -1.71, -1.71, -1.71, -1.71, -1.81, -1.14, -1.14, -1.14, -1.14, -1.2, -1.2, -1.2, -1.12, -0.56, -0.59, -0.56, -0.56, -0.55, 0.0, 0.0, 0.0, 0.0, 0.0, 0.0, 0.0, 0.0, 0.0, 0.0, 0.59, 1.1, 1.2, 1.2, 1.2, 1.1, 1.18, 1.71, 1.71, 1.71, 1.1, 1.12, 1.14, 1.7, 2.84, 3.49, 3.49, 3.48, 3.78, 4.65, 3.79, 4.09, 4.09, 3.95, 4.15, 4.22, 3.16, 2.98, 3.45, 4.16, 2.32, 0.0, 0.0, 0.0, 3.14, 4.55, -0.6, -5.36, -6.98, -5.32, -2.06, 0.59, 1.88, 1.13, 0.0, 0.0, 0.58, 1.4, 2.0, 2.53, 2.21, 2.2, 1.36, 1.4, 2.76, 3.53, 3.53, -2.89, -2.89, -2.89, -3.37, -3.4, -3.64, -3.42, -3.42, -2.96, -2.44, -2.26, -2.26, -1.73, -1.84, -1.73, -1.71, -1.71, -1.71, -1.71, -1.14, -1.14, -1.14, -1.14, -1.14, -1.14, -1.2, -1.12, -0.56, -0.59, -0.59, -0.57, -0.56, 0.0, 0.0, 0.0, 0.0, 0.0, 0.0, 0.0, 0.0, 0.0, 0.59, 0.56, 1.1, 1.2, 1.2, 1.2, 1.1, 1.73, 1.73, 1.71, 1.73, 1.1, 1.23, 1.7, 2.4, 3.49, 3.78, 3.49, 3.48, 4.07, 4.65, 4.8, 4.77, 4.77, 3.72, 2.53, 1.6, 1.66, 2.98, 4.74, 5.03, 3.35, 1.54, 0.0, 2.33, 5.56, 4.55, 0.0, -4.0, -5.31, -1.2, 1.2, 2.15, 2.2, 1.14, 0.61, 0.66, 1.61, 1.88, 1.9, 1.9, 0.85, 0.73, 0.63, 0.7, 2.18, 2.18, -2.86, -2.86, -2.86, -2.89, -2.92, -3.42, -3.42, -3.45, -3.45, -2.77, -2.29, -2.26, -2.26, -2.26, -1.73, -1.73, -1.71, -1.71, -1.71, -1.71, -1.14, -1.14, -1.14, -1.14, -1.14, -1.14, -1.2, -1.12, -0.59, -1.18, -1.12, -0.58, -0.57, 0.0, 0.0, 0.0, 0.0, 0.0, 0.0, 0.0, 0.0, 0.0, 0.56, 0.56, 1.2, 1.12, 1.2, 1.2, 1.2, 1.1, 1.18, 1.18, 1.18, 1.12, 1.16, 2.4, 3.78, 4.11, 4.11, 3.49, 3.49, 4.07, 4.8, 3.6, 2.6, 2.84, 0.57, 0.85, 2.21, 4.8, 6.13, 5.69, 4.36, 2.34, 0.79, 0.0, 3.02, 5.45, 4.67, 1.43, -2.06, -0.95, 0.45, 1.24, 1.13, 1.13, 1.61, 1.58, 1.58, 1.24, 1.24, 0.71, 0.71, 0.0, 0.0, 0.0, 0.67, 0.67, -2.86, -2.86, -2.86, -2.21, -2.37, -2.92, -2.96, -3.45, -3.22, -2.8, -3.0, -2.29, -2.29, -2.29, -1.73, -1.73, -1.73, -1.71, -1.71, -1.71, -1.16, -1.16, -1.14, -1.14, -1.14, -1.14, -1.14, -1.12, -1.12, -1.18, -1.18, -1.14, -0.56, 0.0, 0.0, 0.0, 0.0, 0.0, 0.0, 0.0, 0.0, 0.0, 0.0, 0.83, 0.62, 0.57, 0.57, 0.57, 0.57, 0.61, 0.56, 1.1, 1.1, 1.12, 1.14, 2.4, 4.11, 4.37, 3.49, 3.49, 3.49, 4.07, 4.8, 2.6, 1.86, 2.23, 0.99, 2.6, 4.85, 5.59, 5.43, 4.83, 4.6, 5.6, 3.11, 0.0, -0.73, 0.0, 0.79, 2.17, 1.38, 0.0, 0.0, 0.0, 0.65, 1.16, 1.61, 1.24, 0.57, 0.57, 0.57, 0.0, 0.0, 0.0, 0.0, 0.0, 0.0, 0.0, -2.33, -2.33, -2.33, -2.33, -2.21, -2.37, -2.4, -2.29, -2.8, -3.04, -2.8, -2.32, -2.29, -1.76, -1.76, -1.63, -1.73, -1.73, -1.71, -1.71, -1.16, -1.16, -1.14, -1.14, -1.14, -1.14, -1.14, -1.14, -1.12, -1.18, -1.18, -1.12, -1.16, -0.57, 0.0, 0.0, 0.0, 0.0, -0.57, -0.56, 0.0, 0.0, 0.0, 0.0, 0.57, 0.57, 0.57, 0.0, 0.0, 0.0, 0.57, 0.61, 1.2, 1.12, 1.67, 2.36, 4.11, 4.11, 3.49, 2.84, 3.49, 3.79, 4.65, 1.58, 1.26, 2.48, 3.72, 5.31, 5.75, 5.09, 4.84, 5.06, 5.46, 7.12, 7.23, 3.95, -2.0, -5.28, -4.95, -2.8, 0.0, 0.61, 0.0, -0.63, 0.0, 0.0, 0.54, 0.54, 0.0, 0.0, 0.0, 0.0, 0.0, 0.0, -0.71, -0.61, -1.27, 0.0, -2.33, -2.33, -2.33, -1.78, -1.78, -1.69, -1.69, -1.61, -1.76, -2.36, -1.14, -1.8, -1.76, -1.76, -1.63, -1.63, -1.63, -1.73, -1.61, -1.16, -1.16, -1.16, -1.16, -1.14, -1.14, -1.14, -1.14, -1.14, -1.14, -1.12, -1.18, -1.18, -1.2, -1.18, 0.0, 0.0, 0.0, 0.0, -0.57, -0.57, -0.56, -0.56, 0.0, 0.0, 0.0, 0.57, 0.0, 0.0, 0.0, 0.0, 0.57, 0.57, 1.2, 1.2, 1.76, 2.32, 3.49, 3.49, 2.84, 2.84, 3.12, 3.49, 3.48, 3.79, 2.48, 3.72, 4.47, 4.92, 4.85, 3.83, 4.8, 5.43, 6.28, 7.9, 9.66, 9.28, 4.75, 0.0, -2.21, -2.12, -1.2, -0.6, -0.63, -1.2, -0.63, 0.0, 0.0, 0.0, 0.0, 0.0, 0.0, 0.0, -0.54, -0.71, -1.49, -1.4, -2.73, -1.27, -2.33, -2.33, -2.33, -1.67, -1.67, -1.67, -1.78, -1.14, -1.09, -0.59, -1.1, -1.2, -1.76, -1.63, -1.73, -1.73, -1.63, -1.63, -1.73, -1.09, -1.16, -1.16, -1.16, -1.16, -1.14, -1.14, -1.14, -1.14, -1.14, -1.12, -1.18, -1.18, -1.12, -1.16, -0.57, 0.0, 0.0, 0.0, -0.58, -0.57, -1.2, -1.1, -0.56, -0.56, 0.0, 0.0, 0.0, 0.57, 0.62, 0.58, 0.57, 0.57, 1.2, 1.18, 1.73, 2.29, 3.47, 3.12, 2.2, 2.2, 3.12, 3.12, 3.49, 3.79, 4.09, 4.77, 3.95, 4.47, 3.95, 4.66, 5.59, 5.34, 5.01, 4.46, 6.71, 9.91, 12.13, 10.23, 7.82, 4.5, 1.26, -0.63, -1.7, -1.26, -1.2, -0.45, 0.0, 0.0, 0.0, 0.0, -0.54, -0.54, -1.2, -1.9, -2.41, -3.16, -3.79, -3.79, -2.33, -2.33, -2.33, -1.78, -1.67, -1.67, -1.12, -1.14, -1.14, -0.58, -1.09, -1.18, -1.73, -1.73, -1.73, -1.73, -1.73, -1.63, -1.63, -1.09, -1.16, -1.16, -1.16, -1.16, -1.16, -1.14, -1.14, -1.14, -1.14, -1.14, -1.12, -1.18, -1.18, -1.2, -1.18, -0.53, 0.0, 0.0, -0.53, -1.14, -1.12, -1.2, -1.1, -1.1, -1.1, -0.56, 0.0, 0.0, 0.0, 0.57, 0.57, 0.61, 0.56, 1.18, 1.18, 2.29, 3.47, 2.84, 2.2, 1.94, 2.44, 3.12, 2.86, 3.79, 4.09, 4.4, 4.77, 4.34, 4.38, 4.85, 4.66, 3.58, 2.4, 3.11, 4.46, 6.98, 9.49, 11.02, 12.09, 11.69, 9.09, 4.46, -0.89, -1.4, -0.57, -0.63, -0.45, 0.0, -0.6, -0.54, -1.2, -1.88, -2.53, -2.53, -2.53, -1.9, -1.9, -1.9, -2.33, -2.33, -2.33, -2.33, -1.78, -1.67, -1.12, -1.2, -1.14, -1.14, -1.16, -1.16, -1.71, -1.71, -1.61, -1.18, -1.18, -1.18, -1.1, -1.18, -1.16, -1.16, -1.16, -1.16, -1.16, -1.14, -1.14, -1.14, -1.14, -1.14, -1.12, -1.18, -1.18, -1.12, -1.16, -0.57, 0.0, 0.0, 0.0, -0.58, -1.23, -1.65, -1.76, -1.76, -1.76, -1.1, -0.56, 0.0, 0.0, 0.0, 0.0, 0.0, 0.59, 0.59, 1.18, 1.76, 2.8, 2.82, 2.2, 1.94, 2.44, 2.44, 3.12, 4.11, 4.09, 4.4, 4.77, 4.92, 3.13, 4.38, 3.22, 2.84, 3.07, 4.29, 4.65, 5.49, 6.09, 7.11, 8.83, 11.02, 11.8, 11.57, 5.09, -1.2, -0.65, -0.6, -0.45, -1.2, -1.58, -1.88, -1.88, -2.53, -2.79, -2.23, -0.95, 0.0, 0.0, 0.0, -2.33, -2.33, -2.33, -2.33, -1.78, -1.78, -1.69, -1.69, -1.69, -1.69, -1.69, -1.81, -1.71, -1.71, -1.16, -1.16, -1.09, -1.09, -1.18, -1.18, -1.09, -1.16, -1.16, -1.16, -1.16, -1.16, -1.14, -1.14, -1.14, -1.14, -1.2, -1.12, -1.18, -1.75, -1.2, -1.18, -0.58, -0.54, 0.0, -0.59, -0.58, -1.12, -1.76, -1.76, -1.76, -1.2, -1.2, -0.61, -0.61, 0.0, 0.0, 0.0, 0.0, 0.56, 1.1, 2.77, 3.0, 2.82, 2.4, 1.94, 1.76, 2.44, 2.86, 3.48, 4.65, 4.4, 4.66, 2.12, 2.24, 3.2, 3.72, 3.58, 4.8, 4.81, 4.65, 3.69, 3.11, 3.82, 6.2, 8.86, 11.08, 11.65, 10.66, 2.06, -0.95, -0.4, -0.63, -1.58, -2.15, -1.9, -2.53, -2.4, -1.86, -0.63, 0.0, 0.0, 0.0, 0.0, -2.33, -2.33, -2.33, -2.33, -2.33, -1.69, -1.69, -1.69, -1.69, -1.69, -1.69, -1.69, -1.69, -1.71, -1.16, -1.16, -1.16, -1.16, -1.09, -1.18, -1.18, -1.16, -1.16, -1.16, -1.16, -1.16, -1.16, -1.14, -1.14, -1.69, -1.69, -1.67, -1.67, -1.67, -1.67, -1.14, -1.1, -0.58, -0.54, 0.0, -0.59, -0.58, -1.12, -1.12, -1.2, -1.1, -1.1, -1.1, -1.2, -0.61, 0.0, 0.0, 0.0, 0.57, 0.57, 2.29, 3.0, 2.54, 2.4, 1.94, 1.76, 2.44, 2.86, 3.79, 4.0, 4.09, 4.24, 2.54, 2.0, 2.6, 3.6, 4.66, 4.6, 3.63, 2.47, 1.55, 1.52, 3.11, 5.41, 7.82, 11.06, 11.53, 11.39, 8.51, 0.54, -1.2, -1.2, -1.86, -1.34, 0.0, 0.0, -0.45, -0.45, 0.0, 0.0, 0.0, 0.0, 0.0, -2.33, -2.33, -2.33, -2.21, -2.21, -1.69, -1.69, -1.69, -1.69, -1.69, -1.69, -1.69, -1.69, -1.81, -1.16, -1.16, -1.16, -1.16, -1.16, -1.09, -1.18, -1.09, -1.16, -1.16, -1.16, -1.16, -1.16, -1.14, -1.69, -1.69, -1.69, -1.78, -1.67, -1.67, -1.67, -1.14, -1.16, -1.2, -0.58, -0.54, -0.61, -0.54, -0.59, -0.58, -1.12, -1.12, -1.12, -0.57, -0.57, -0.57, 0.0, 0.0, 0.0, 0.0, 1.65, 2.49, 3.0, 2.16, 1.7, 1.73, 1.76, 2.22, 3.15, 3.48, 4.0, 4.09, 3.82, 3.82, 3.82, 3.2, 3.74, 4.15, 2.68, 1.7, 0.82, 1.52, 3.2, 5.49, 6.95, 7.68, 9.17, 10.47, 10.46, 12.4, 6.17, -1.79, -2.0, -0.99, -0.0, 0.71, -0.0, -0.0, -0.0, -0.0, -0.0, -0.0, -0.0, -0.0, -2.33, -2.33, -2.21, -2.21, -2.21, -1.69, -1.69, -1.69, -1.69, -1.69, -1.69, -1.69, -1.69, -1.14, -1.16, -1.16, -1.16, -1.16, -1.16, -1.16, -1.09, -1.09, -1.16, -1.16, -1.16, -1.16, -1.16, -1.14, -1.69, -1.69, -1.69, -1.69, -1.67, -1.67, -1.67, -1.69, -1.14, -1.16, -1.2, -1.14, -0.54, -0.55, -0.61, -0.59, -1.16, -1.05, -1.05, -0.58, 0.0, 0.0, 0.0, 0.0, 0.0, 0.0, 1.8, 2.32, 2.32, 2.16, 1.7, 1.76, 1.76, 2.48, 2.86, 3.48, 3.43, 3.48, 3.72, 3.82, 3.2, 1.26, 0.8, 1.98, 1.66, 1.55, 3.35, 5.21, 5.82, 7.44, 7.68, 7.02, 7.18, 8.72, 11.63, 14.15, 11.52, 0.0, -2.66, -0.59, 0.53, 1.2, 0.54, -0.0, -0.0, -0.0, -0.0, -0.0, -0.0, -0.0, -2.33, -2.33, -2.21, -2.21, -2.21, -2.37, -1.81, -1.69, -1.69, -1.69, -1.69, -1.69, -1.14, -1.14, -1.16, -1.16, -1.16, -1.16, -1.16, -1.16, -1.16, -1.18, -1.16, -1.16, -1.16, -1.16, -1.16, -1.22, -1.69, -1.69, -1.69, -1.69, -1.67, -1.67, -1.78, -1.69, -1.14, -1.16, -1.16, -1.1, -1.14, -1.16, -1.19, -1.16, -1.16, -1.16, -0.54, 0.0, 0.0, 0.0, 0.0, 0.0, 0.0, 0.0, 1.67, 2.32, 2.32, 1.67, 1.88, 1.76, 2.0, 2.48, 2.48, 2.86, 3.16, 3.22, 3.22, 2.12, 1.26, 0.6, 0.0, 1.26, 1.98, 4.57, 6.21, 6.98, 6.8, 7.03, 7.44, 7.02, 6.53, 7.52, 10.04, 12.67, 13.41, 2.07, -0.0, 0.65, 1.49, 1.26, 0.57, -0.0, -0.0, -0.0, -0.0, -0.0, -0.0, -0.0, -2.33, -2.33, -2.21, -2.21, -2.21, -2.37, -1.81, -1.81, -1.81, -1.81, -1.69, -1.69, -1.81, -1.81, -1.22, -1.16, -1.16, -1.16, -1.16, -1.16, -1.09, -1.09, -1.16, -1.71, -1.16, -1.16, -1.71, -1.81, -1.69, -1.69, -1.69, -1.69, -1.78, -1.67, -1.78, -1.69, -1.16, -1.16, -0.58, -1.16, -1.18, -1.65, -1.8, -1.67, -1.14, -0.58, 0.0, 0.0, 0.0, 0.0, 0.0, 0.0, 0.0, 1.14, 1.67, 2.32, 1.8, 1.67, 1.73, 1.76, 2.0, 2.48, 2.48, 2.48, 2.84, 2.84, 3.2, 2.21, 2.41, 1.98, 1.9, 1.79, 3.47, 5.75, 6.71, 6.21, 6.28, 6.0, 6.44, 6.32, 6.24, 6.53, 7.36, 7.58, 8.68, -2.0, -0.0, 1.86, 2.12, 1.58, 0.63, -0.0, 0.57, -0.0, -0.0, 0.63, 0.63, 0.63, -2.33, -2.21, -2.21, -2.21, -2.37, -1.81, -1.81, -1.71, -1.71, -1.71, -1.81, -1.81, -1.71, -1.71, -1.71, -1.71, -1.71, -1.71, -1.16, -1.16, -1.09, -1.09, -1.71, -1.71, -1.71, -1.71, -1.71, -1.81, -1.69, -1.69, -1.69, -1.69, -1.78, -1.67, -1.67, -1.69, -1.71, -1.16, -0.58, -1.16, -1.16, -1.16, -1.73, -1.73, -1.18, -0.59, 0.0, 0.0, 0.56, 0.57, 0.57, 0.0, 0.0, 1.14, 1.8, 1.8, 1.8, 1.84, 1.73, 1.76, 2.0, 2.0, 2.48, 2.23, 2.51, 2.79, 2.6, 2.53, 3.48, 4.22, 3.83, 3.47, 3.58, 4.15, 5.31, 5.36, 5.75, 6.02, 5.82, 5.77, 6.32, 6.24, 5.52, 4.65, 2.19, 0.0, 0.45, 0.95, 0.0, 0.0, 0.0, -0.6, 0.63, 0.8, 0.89, 1.34, 1.34, 1.34, -2.21, -2.21, -2.21, -2.37, -2.37, -1.81, -1.71, -1.71, -1.71, -1.71, -1.71, -1.71, -1.71, -1.71, -1.71, -1.71, -1.71, -1.71, -1.16, -1.16, -1.16, -1.71, -1.71, -1.71, -1.71, -1.71, -1.71, -1.71, -1.81, -1.81, -1.81, -1.69, -1.78, -1.67, -1.67, -1.69, -1.71, -1.16, -1.16, -1.16, -0.58, -1.16, -1.16, -1.16, -0.58, 0.0, 0.0, 0.55, 0.56, 0.56, 0.0, 0.0, 0.0, 1.14, 1.8, 1.65, 1.23, 1.7, 1.73, 1.76, 1.76, 1.58, 1.8, 1.8, 2.51, 2.79, 2.21, 2.53, 4.22, 4.8, 4.66, 4.85, 4.92, 4.85, 4.66, 4.92, 4.92, 4.85, 4.4, 5.15, 5.69, 5.76, 5.41, 3.16, 0.71, 1.32, 0.0, -0.89, -2.4, -2.23, -1.8, -0.57, 0.45, 1.34, 1.7, 1.86, 1.86, 1.86, -2.21, -2.21, -2.37, -2.37, -2.37, -1.71, -1.71, -1.71, -1.71, -1.71, -1.71, -1.71, -1.71, -1.71, -1.71, -1.71, -1.71, -1.71, -1.71, -1.71, -1.71, -1.71, -1.71, -1.71, -1.71, -1.71, -1.71, -1.71, -1.81, -1.81, -1.81, -1.69, -1.69, -1.67, -1.67, -1.78, -1.81, -1.71, -1.09, -1.16, -1.16, -0.58, -0.58, -0.58, -0.58, 0.0, 0.0, 0.0, 0.56, 0.0, 0.0, 0.0, 0.58, 1.14, 1.23, 1.12, 1.14, 1.16, 1.76, 1.76, 1.23, 1.11, 1.27, 1.8, 2.23, 2.53, 2.53, 3.07, 3.6, 4.15, 4.38, 4.92, 4.92, 4.85, 4.15, 4.85, 4.02, 4.85, 4.84, 4.19, 4.74, 5.49, 5.38, 6.5, 5.65, 1.61, -0.53, -1.7, -2.68, -3.07, -1.79, 0.0, 0.89, 1.79, 2.6, 2.91, 2.91, 2.91, -2.37, -2.37, -2.37, -2.37, -2.23, -1.71, -1.71, -1.71, -1.71, -1.71, -1.71, -1.71, -1.71, -1.71, -1.71, -1.71, -1.71, -1.71, -1.71, -1.71, -1.71, -1.71, -1.71, -1.71, -1.71, -1.71, -1.71, -1.71, -1.71, -1.71, -1.81, -1.81, -1.69, -1.78, -1.67, -1.78, -1.69, -1.71, -1.09, -1.09, -1.09, -0.58, -0.58, -0.58, 0.0, 0.0, 0.0, 0.0, 0.0, 0.0, 0.0, 0.0, 0.53, 1.14, 1.14, 1.23, 1.14, 1.19, 1.23, 1.23, 1.23, 1.11, 1.27, 1.84, 1.84, 2.53, 2.53, 3.07, 3.2, 3.47, 4.47, 4.38, 3.95, 3.9, 3.74, 3.58, 4.38, 4.85, 5.21, 4.81, 4.43, 4.83, 5.99, 8.07, 9.51, 3.14, -1.27, -0.53, -0.54, -0.0, 0.53, 1.49, 1.79, 2.6, 3.07, 3.32, 3.32, 3.32, -2.37, -2.37, -2.37, -2.23, -2.23, -1.71, -1.71, -1.71, -1.71, -1.71, -1.71, -1.71, -1.71, -1.71, -1.71, -1.71, -1.71, -1.71, -1.71, -1.71, -1.71, -1.71, -1.71, -1.71, -1.71, -1.71, -1.71, -1.71, -1.71, -1.71, -1.71, -1.81, -1.81, -1.69, -1.78, -1.78, -1.69, -1.71, -1.09, -1.18, -1.18, -0.55, -0.55, -0.55, 0.0, 0.0, 0.0, 0.0, 0.0, 0.0, 0.0, 0.0, 0.59, 0.58, 1.14, 1.14, 1.16, 1.19, 1.23, 0.63, 0.63, 0.57, 1.13, 1.33, 1.88, 1.88, 2.21, 2.86, 3.32, 3.58, 3.95, 3.47, 2.97, 2.97, 3.47, 3.2, 2.6, 3.58, 3.58, 3.79, 4.11, 4.12, 4.8, 5.45, 7.84, 5.45, -0.89, -0.0, 1.13, 1.84, 2.53, 2.91, 2.68, 3.07, 3.51, 3.32, 3.32, 3.32, -2.37, -2.37, -2.23, -2.23, -2.23, -1.71, -1.71, -1.71, -1.71, -1.71, -1.71, -1.71, -1.71, -1.71, -1.84, -1.71, -1.71, -1.71, -1.71, -1.71, -1.71, -1.71, -1.71, -1.71, -1.71, -1.71, -1.71, -1.71, -1.71, -1.71, -1.71, -1.71, -1.71, -1.81, -1.69, -1.78, -1.69, -1.71, -1.71, -1.18, -1.18, -0.59, -0.59, -0.59, -0.59, 0.0, 0.0, 0.0, 0.0, 0.0, -0.56, 0.0, 0.59, 0.58, 0.58, 0.58, 0.59, 0.55, 0.55, 0.55, 0.63, 0.57, 1.13, 1.16, 1.4, 1.2, 1.9, 2.5, 3.07, 2.68, 1.79, 2.54, 2.54, 2.97, 3.47, 3.47, 2.54, 2.54, 2.97, 2.84, 2.6, 2.51, 2.47, 2.37, 2.28, 3.16, 0.0, -1.26, 0.53, 2.68, 4.52, 3.82, 3.58, 3.32, 3.74, 4.24, 4.24, 4.24, -2.37, -2.37, -2.23, -2.23, -2.23, -2.23, -1.71, -1.71, -1.71, -1.71, -1.71, -1.71, -1.71, -1.73, -1.73, -1.73, -1.71, -1.71, -1.71, -1.71, -1.71, -1.71, -1.71, -1.71, -1.71, -1.71, -1.71, -1.71, -1.71, -1.71, -2.23, -2.23, -2.23, -1.71, -1.69, -1.69, -1.69, -1.71, -1.61, -1.18, -1.1, -0.56, -0.59, -0.59, -0.59, -0.56, -0.56, 0.0, -0.56, -0.59, -0.56, 0.0, 0.0, 0.58, 0.58, 0.53, 0.54, 0.55, 0.55, 0.0, 0.57, 0.57, 0.59, 0.61, 1.2, 1.2, 1.9, 2.4, 2.6, 1.79, 1.34, 1.6, 1.58, 1.58, 2.54, 2.68, 2.24, 1.34, 1.79, 1.8, 1.55, 1.63, 0.81, 0.0, 0.0, 0.0, 0.0, -0.69, -0.63, 2.17, 4.88, 5.2, 4.47, 4.73, 4.73, 4.8, 4.8, 4.8, -2.37, -2.37, -2.23, -2.4, -2.4, -2.4, -2.23, -2.23, -2.23, -2.23, -1.71, -1.71, -1.73, -1.73, -1.73, -1.73, -1.84, -1.71, -1.71, -1.71, -1.71, -1.71, -1.71, -1.71, -1.71, -1.71, -2.23, -2.23, -2.23, -2.23, -2.23, -2.23, -2.23, -1.71, -1.71, -1.69, -1.69, -1.71, -1.73, -1.63, -1.1, -1.1, -1.1, -1.18, -1.1, -0.56, -0.61, -0.61, -0.56, -0.59, -0.61, 0.0, 0.0, 0.0, 0.0, 0.0, 0.61, 0.0, 0.0, 0.0, 0.0, 0.66, 0.59, 0.61, 0.65, 1.24, 1.24, 1.58, 1.26, 1.6, 1.79, 0.63, 0.6, 0.6, 0.6, 1.26, 1.34, 0.89, 0.0, 0.99, 0.73, 0.83, 0.0, 0.0, 0.0, 0.0, 0.0, 0.0, 0.0, 1.0, 3.53, 5.64, 5.81, 5.64, 5.86, 5.43, 5.43, 5.43, -2.23, -2.23, -2.23, -2.4, -2.4, -2.4, -2.23, -2.23, -2.23, -2.23, -2.23, -1.84, -1.73, -1.73, -1.73, -1.73, -1.73, -1.84, -1.84, -1.84, -1.84, -1.84, -1.71, -1.71, -2.23, -2.23, -2.4, -2.4, -2.4, -2.23, -2.23, -2.23, -2.23, -1.71, -1.71, -1.69, -1.69, -1.81, -1.73, -1.63, -1.2, -1.1, -1.1, -1.1, -1.1, -1.2, -1.12, -1.2, -1.1, -1.1, -0.57, 0.0, 0.0, 0.0, 0.0, 0.0, 0.0, 0.0, 0.0, 0.0, 0.0, 0.0, 0.0, 0.0, 0.0, 0.71, 0.57, 0.8, 0.6, 1.2, 1.34, 0.45, -0.0, -0.0, -0.0, -0.0, 1.34, 1.26, 1.0, 0.87, 0.0, 0.0, 0.0, 0.8, 0.78, 1.58, 1.53, 1.51, 1.36, 0.67, 2.6, 4.3, 4.92, 4.87, 4.93, 4.73, 4.73, 4.73, -2.23, -2.23, -2.4, -2.4, -2.4, -2.4, -2.4, -2.23, -2.23, -2.23, -2.4, -1.73, -1.73, -1.73, -1.73, -1.73, -1.73, -1.73, -1.73, -1.73, -1.84, -1.84, -1.84, -2.23, -2.4, -2.4, -2.4, -2.4, -2.4, -2.4, -1.71, -1.71, -1.71, -1.71, -1.71, -1.71, -1.69, -1.81, -1.71, -1.63, -1.2, -1.2, -1.1, -1.1, -1.63, -1.2, -1.12, -1.2, -1.1, -1.2, -0.53, 0.0, 0.0, 0.0, 0.0, 0.0, 0.0, 0.0, 0.0, 0.0, 0.0, 0.0, 0.0, 0.0, 0.0, 0.0, 0.0, 0.0, 0.0, 0.95, 1.34, 0.89, 0.89, -0.0, -0.0, 0.95, 0.89, 1.58, 1.74, 1.8, 1.55, 0.83, 0.77, 0.79, 1.57, 3.18, 3.86, 3.04, 2.22, 1.6, 1.4, 2.68, 3.07, 3.07, 2.68, 2.53, 2.53, 2.53, -2.23, -2.23, -2.4, -2.4, -2.4, -2.4, -2.4, -2.23, -2.23, -2.23, -2.4, -1.73, -1.73, -1.73, -1.73, -1.73, -1.73, -1.73, -1.73, -1.73, -1.84, -1.84, -1.84, -2.23, -2.4, -2.4, -2.4, -2.4, -2.4, -2.4, -1.71, -1.71, -1.71, -1.71, -1.71, -1.71, -1.69, -1.81, -1.71, -1.63, -1.2, -1.2, -1.1, -1.1, -1.63, -1.2, -1.12, -1.2, -1.1, -1.2, -0.53, 0.0, 0.0, 0.0, 0.0, 0.0, 0.0, 0.0, 0.0, 0.0, 0.0, 0.0, 0.0, 0.0, 0.0, 0.0, 0.0, 0.0, 0.0, 0.95, 1.34, 0.89, 0.89, -0.0, -0.0, 0.95, 1.26, 1.58, 1.74, 1.8, 1.55, 1.63, 1.58, 1.62, 2.37, 3.13, 4.59, 5.51, 4.71, 3.96, 2.12, 1.58, 1.79, 1.7, 1.24, 1.2, 1.2, 1.2]}]